N8MS Weather Reports


time (UTC)temp
F
wind
direction
speed
knots
gust
knots
rain 1hr
in
rain 24hr
in
rain mn
in
humidity
%
barometer
mb
20260906110220 62 76 2.6 4.3 0.00 0.00 0.00 92 1018.8
20260906110143 62 76 2.6 4.3 0.00 0.00 0.00 92 1018.8
20260906110034 62 71 2.6 3.5 0.00 0.00 0.00 92 1018.9
20260906105925 62 76 0.9 3.5 0.00 0.00 0.00 92 1018.9
20260906105838 62 76 0.0 0.0 0.00 0.00 0.00 92 1018.9
20260906105730 62 76 0.0 0.0 0.00 0.00 0.00 92 1018.9
20260906105621 62 76 0.0 0.0 0.00 0.00 0.00 92 1018.9
20260906105533 62 76 0.0 0.0 0.00 0.00 0.00 92 1018.9
20260906105426 62 76 0.0 0.0 0.00 0.00 0.00 92 1019.0
20260906105337 62 76 0.0 0.0 0.00 0.00 0.00 92 1018.9
20260906105232 62 76 0.0 0.0 0.00 0.00 0.00 92 1018.9
20260906105124 62 76 0.0 0.0 0.00 0.00 0.00 92 1019.0
20260906105036 62 76 0.0 0.0 0.00 0.00 0.00 92 1018.9
20260906104929 62 76 0.0 0.0 0.00 0.00 0.00 92 1019.0
20260906104821 62 76 0.0 0.0 0.00 0.00 0.00 92 1019.0
20260906104732 62 76 0.0 0.0 0.00 0.00 0.00 92 1018.9
20260906104655 62 76 0.0 0.0 0.00 0.00 0.00 92 1018.9
20260906104548 63 76 0.0 2.6 0.00 0.00 0.00 92 1018.9
20260906104438 63 76 0.0 2.6 0.00 0.00 0.00 92 1018.9
20260906104332 63 76 0.0 2.6 0.00 0.00 0.00 92 1018.9
20260906104224 63 76 0.0 2.6 0.00 0.00 0.00 92 1019.0
20260906104137 63 76 0.0 2.6 0.00 0.00 0.00 92 1019.0
20260906104047 63 76 0.0 2.6 0.00 0.00 0.00 91 1018.9
20260906103919 63 76 0.0 2.6 0.00 0.00 0.00 91 1019.0
20260906103831 63 76 0.9 2.6 0.00 0.00 0.00 91 1018.9
20260906103743 63 76 1.7 2.6 0.00 0.00 0.00 91 1019.0
20260906103635 63 76 1.7 2.6 0.00 0.00 0.00 92 1019.0
20260906103547 63 76 1.7 2.6 0.00 0.00 0.00 92 1018.9
20260906103458 63 76 1.7 2.6 0.00 0.00 0.00 92 1018.9
20260906103332 63 76 1.7 2.6 0.00 0.00 0.00 91 1018.8
20260906103221 63 76 1.7 2.6 0.00 0.00 0.00 91 1018.9
20260906103141 63 76 1.7 2.6 0.00 0.00 0.00 91 1018.8
20260906103033 63 76 1.7 2.6 0.00 0.00 0.00 91 1018.8
20260906102925 63 76 1.7 5.2 0.00 0.00 0.00 91 1018.7
20260906102837 63 76 1.7 5.2 0.00 0.00 0.00 91 1018.7
20260906102729 63 76 1.7 5.2 0.00 0.00 0.00 91 1018.7
20260906102642 63 101 1.7 5.2 0.00 0.00 0.00 91 1018.7
20260906102533 63 101 1.7 5.2 0.00 0.00 0.00 92 1018.6
20260906102429 63 101 1.7 5.2 0.00 0.00 0.00 92 1018.7
20260906102342 63 101 2.6 5.2 0.00 0.00 0.00 92 1018.7
20260906102233 63 101 2.6 5.2 0.00 0.00 0.00 92 1018.5
20260906102126 63 106 1.7 4.3 0.00 0.00 0.00 91 1018.6
20260906102038 63 103 0.9 3.5 0.00 0.00 0.00 91 1018.6
20260906101930 63 78 0.9 3.5 0.00 0.00 0.00 91 1018.6
20260906101822 63 78 0.9 3.5 0.00 0.00 0.00 91 1018.7
20260906101735 63 78 1.7 3.5 0.00 0.00 0.00 91 1018.7
20260906101659 63 78 1.7 3.5 0.00 0.00 0.00 91 1018.7
20260906101533 63 78 1.7 3.5 0.00 0.00 0.00 91 1018.6
20260906101426 63 67 1.7 3.5 0.00 0.00 0.00 91 1018.7
20260906101339 63 87 1.7 3.5 0.00 0.00 0.00 91 1018.7
20260906101231 63 87 1.7 3.5 0.00 0.00 0.00 91 1018.6
20260906101144 63 87 1.7 3.5 0.00 0.00 0.00 91 1018.5
20260906101057 63 87 1.7 3.5 0.00 0.00 0.00 91 1018.5
20260906101009 63 87 0.9 3.5 0.00 0.00 0.00 91 1018.6
20260906100859 63 87 1.7 3.5 0.00 0.00 0.00 91 1018.6
20260906100731 63 87 1.7 3.5 0.00 0.00 0.00 91 1018.6
20260906100643 63 95 1.7 3.5 0.00 0.00 0.00 91 1018.6
20260906100536 63 95 1.7 3.5 0.00 0.00 0.00 91 1018.5
20260906100428 63 63 0.9 2.6 0.00 0.00 0.00 91 1018.5
20260906100321 63 63 0.9 2.6 0.00 0.00 0.00 91 1018.5
20260906100231 63 63 1.7 2.6 0.00 0.01 0.00 91 1018.5
20260906100153 63 63 1.7 2.6 0.00 0.01 0.00 91 1018.5
20260906100024 63 63 0.9 2.6 0.00 0.01 0.00 91 1018.5
20260906095935 63 63 0.9 2.6 0.00 0.01 0.00 90 1018.5
20260906095847 63 63 0.9 2.6 0.00 0.01 0.00 90 1018.4
20260906095738 63 63 0.9 2.6 0.00 0.01 0.00 90 1018.4
20260906095649 63 63 0.9 2.6 0.00 0.01 0.00 90 1018.4
20260906095525 63 63 0.9 2.6 0.00 0.01 0.00 90 1018.4
20260906095419 63 63 0.9 2.6 0.00 0.01 0.00 90 1018.4
20260906095330 63 63 0.9 2.6 0.00 0.01 0.00 90 1018.4
20260906095223 63 63 0.9 2.6 0.00 0.01 0.00 90 1018.4
20260906095134 63 63 0.9 2.6 0.00 0.01 0.00 90 1018.4
20260906095046 63 63 0.9 2.6 0.00 0.01 0.00 90 1018.4
20260906094959 63 63 1.7 2.6 0.00 0.01 0.00 90 1018.4
20260906094831 63 63 1.7 2.6 0.00 0.01 0.00 90 1018.4
20260906094734 63 63 1.7 2.6 0.00 0.01 0.00 90 1018.4
20260906094640 63 63 1.7 2.6 0.00 0.01 0.00 90 1018.4
20260906094532 63 63 1.7 2.6 0.00 0.01 0.00 90 1018.4
20260906094422 63 63 0.9 1.7 0.00 0.01 0.00 90 1018.4
20260906094335 63 63 0.9 1.7 0.00 0.01 0.00 90 1018.4
20260906094227 64 63 0.9 1.7 0.00 0.01 0.00 89 1018.4
20260906094119 64 63 0.9 2.6 0.00 0.01 0.00 89 1018.4
20260906094032 64 63 0.9 2.6 0.00 0.01 0.00 89 1018.3
20260906093943 64 63 0.9 2.6 0.00 0.01 0.00 89 1018.3
20260906093855 64 63 0.9 2.6 0.00 0.01 0.00 89 1018.4
20260906093730 64 63 0.9 2.6 0.00 0.01 0.00 89 1018.4
20260906093642 64 63 0.9 2.6 0.00 0.01 0.00 89 1018.3
20260906093534 64 63 0.9 2.6 0.00 0.01 0.00 89 1018.4
20260906093426 64 63 1.7 2.6 0.00 0.01 0.00 89 1018.4
20260906093337 64 63 1.7 2.6 0.00 0.01 0.00 89 1018.4
20260906093248 64 63 1.7 2.6 0.00 0.01 0.00 89 1018.4
20260906093211 64 63 1.7 2.6 0.00 0.01 0.00 89 1018.4
20260906093042 64 63 1.7 2.6 0.00 0.01 0.00 89 1018.3
20260906092954 64 63 1.7 2.6 0.00 0.01 0.00 89 1018.4
20260906092825 64 63 1.7 2.6 0.00 0.01 0.00 89 1018.4
20260906092721 64 63 1.7 2.6 0.00 0.01 0.00 89 1018.4
20260906092632 64 63 1.7 2.6 0.00 0.01 0.00 89 1018.3
20260906092525 64 63 1.7 2.6 0.00 0.01 0.00 88 1018.4
20260906092436 64 63 1.7 3.5 0.00 0.01 0.00 88 1018.4
20260906092328 64 63 1.7 3.5 0.00 0.01 0.00 88 1018.3
20260906092240 64 63 1.7 3.5 0.00 0.01 0.00 88 1018.3
20260906092152 64 63 1.7 3.5 0.00 0.01 0.00 88 1018.3
20260906092043 64 63 1.7 3.5 0.00 0.01 0.00 88 1018.3
20260906091934 64 63 1.7 3.5 0.00 0.01 0.00 88 1018.3
20260906091827 64 63 1.7 3.5 0.00 0.01 0.00 88 1018.3
20260906091724 64 63 2.6 3.5 0.00 0.01 0.00 88 1018.3
20260906091646 64 54 1.7 3.5 0.00 0.01 0.00 88 1018.3
20260906091538 64 45 1.7 3.5 0.00 0.01 0.00 88 1018.4
20260906091431 65 67 1.7 3.5 0.00 0.01 0.00 88 1018.3
20260906091344 65 67 1.7 3.5 0.00 0.01 0.00 88 1018.4
20260906091256 65 67 1.7 3.5 0.00 0.01 0.00 88 1018.4
20260906091127 65 69 1.7 3.5 0.00 0.01 0.00 88 1018.4
20260906091019 65 69 1.7 3.5 0.00 0.01 0.00 88 1018.3
20260906090930 65 71 1.7 3.5 0.00 0.01 0.00 88 1018.4
20260906090827 65 82 1.7 3.5 0.00 0.01 0.00 88 1018.3
20260906090719 65 82 0.9 3.5 0.00 0.01 0.00 88 1018.4
20260906090631 65 82 1.7 3.5 0.00 0.01 0.00 88 1018.4
20260906090524 65 82 2.6 3.5 0.00 0.01 0.00 88 1018.3
20260906090436 65 88 1.7 3.5 0.00 0.01 0.00 88 1018.3
20260906090328 65 65 0.9 3.5 0.00 0.01 0.00 88 1018.3
20260906090219 65 65 1.7 3.5 0.00 0.01 0.00 88 1018.3
20260906090140 65 65 1.7 3.5 0.00 0.01 0.00 88 1018.3
20260906090036 65 90 1.7 3.5 0.00 0.01 0.00 88 1018.3
20260906085947 65 73 0.9 3.5 0.00 0.01 0.00 88 1018.3
20260906085837 65 90 0.9 3.5 0.00 0.01 0.00 88 1018.3
20260906085750 65 42 1.7 3.5 0.00 0.01 0.00 88 1018.3
20260906085642 65 90 1.7 3.5 0.00 0.01 0.00 88 1018.3
20260906085555 65 96 1.7 3.5 0.00 0.01 0.00 88 1018.3
20260906085445 65 93 1.7 5.2 0.00 0.01 0.00 88 1018.3
20260906085337 65 93 2.6 5.2 0.00 0.01 0.00 88 1018.3
20260906085229 65 82 1.7 5.2 0.00 0.01 0.00 88 1018.3
20260906085122 65 90 0.9 5.2 0.00 0.01 0.00 88 1018.2
20260906085033 65 90 1.7 5.2 0.00 0.01 0.00 88 1018.3
20260906084948 65 90 2.6 5.2 0.00 0.01 0.00 88 1018.2
20260906084900 65 77 1.7 5.2 0.00 0.01 0.00 88 1018.2
20260906084752 65 102 2.6 5.2 0.00 0.01 0.00 88 1018.2
20260906084653 65 86 2.6 5.2 0.00 0.01 0.00 88 1018.2
20260906084524 65 66 1.7 5.2 0.00 0.01 0.00 88 1018.3
20260906084435 65 70 1.7 5.2 0.00 0.01 0.00 88 1018.3
20260906084347 65 111 1.7 5.2 0.00 0.01 0.00 88 1018.2
20260906084259 65 111 2.6 7.0 0.00 0.01 0.00 88 1018.2
20260906084210 65 74 1.7 7.0 0.00 0.01 0.00 88 1018.2
20260906084122 65 96 0.9 7.0 0.00 0.01 0.00 88 1018.2
20260906084013 65 76 1.7 7.0 0.00 0.01 0.00 88 1018.2
20260906083904 65 76 1.7 7.0 0.00 0.01 0.00 88 1018.2
20260906083738 65 100 0.9 7.0 0.00 0.01 0.00 88 1018.1
20260906083630 65 103 2.6 7.0 0.00 0.01 0.00 88 1018.1
20260906083522 65 103 3.5 7.0 0.00 0.01 0.00 88 1018.1
20260906083433 65 103 2.6 6.1 0.00 0.01 0.00 88 1018.1
20260906083232 65 85 2.6 7.0 0.00 0.01 0.00 88 1018.1
20260906083154 65 109 2.6 7.0 0.00 0.01 0.00 88 1018.1
20260906083025 65 102 2.6 7.0 0.00 0.01 0.00 88 1018.0
20260906082937 65 101 2.6 7.0 0.00 0.01 0.00 88 1018.1
20260906082829 65 94 4.3 7.0 0.00 0.01 0.00 88 1018.0
20260906082745 65 84 3.5 7.0 0.00 0.01 0.00 88 1018.0
20260906082657 65 105 3.5 7.0 0.00 0.01 0.00 89 1018.0
20260906082548 65 111 3.5 7.0 0.00 0.01 0.00 89 1018.0
20260906082438 65 115 3.5 7.0 0.00 0.01 0.00 89 1018.0
20260906082349 65 93 3.5 7.0 0.00 0.01 0.00 89 1018.0
20260906082221 65 96 3.5 7.0 0.00 0.01 0.00 89 1018.0
20260906082133 65 90 4.3 7.0 0.00 0.01 0.00 89 1018.0
20260906082045 65 93 4.3 7.0 0.00 0.01 0.00 89 1017.9
20260906081937 65 91 4.3 7.0 0.00 0.01 0.00 89 1017.9
20260906081829 65 111 3.5 7.0 0.00 0.01 0.00 89 1017.9
20260906081725 65 97 3.5 7.0 0.00 0.01 0.00 89 1018.0
20260906081647 65 76 3.5 7.0 0.00 0.01 0.00 89 1017.9
20260906081536 65 111 3.5 7.0 0.00 0.01 0.00 89 1017.9
20260906081427 65 124 3.5 6.1 0.00 0.01 0.00 89 1017.9
20260906081339 65 81 3.5 6.1 0.00 0.01 0.00 89 1018.0
20260906081229 65 115 3.5 6.1 0.00 0.01 0.00 89 1017.9
20260906081142 65 119 3.5 6.1 0.00 0.01 0.00 89 1017.9
20260906081034 66 121 3.5 6.1 0.00 0.01 0.00 89 1017.9
20260906080927 66 94 2.6 6.1 0.00 0.01 0.00 89 1017.9
20260906080822 66 98 2.6 6.1 0.00 0.01 0.00 89 1017.9
20260906080734 66 98 3.5 6.1 0.00 0.01 0.00 89 1017.9
20260906080646 66 131 4.3 6.1 0.00 0.01 0.00 89 1017.9
20260906080538 66 104 4.3 6.1 0.00 0.01 0.00 89 1017.9
20260906080449 66 93 3.5 6.1 0.00 0.01 0.00 89 1017.9
20260906080340 66 112 3.5 6.1 0.00 0.01 0.00 90 1017.9
20260906080230 66 101 3.5 5.2 0.00 0.01 0.00 90 1018.0
20260906080151 66 98 2.6 5.2 0.00 0.01 0.00 90 1018.0
20260906080022 66 103 3.5 5.2 0.00 0.01 0.00 89 1018.0
20260906075934 66 95 3.5 7.0 0.00 0.01 0.00 89 1018.0
20260906075846 66 105 2.6 7.0 0.00 0.01 0.00 89 1018.0
20260906075741 66 107 1.7 7.0 0.00 0.01 0.00 89 1018.0
20260906075632 66 66 2.6 7.0 0.00 0.01 0.00 89 1018.0
20260906075525 66 110 3.5 7.0 0.00 0.01 0.00 89 1018.0
20260906075436 66 112 3.5 7.0 0.00 0.01 0.00 89 1018.0
20260906075328 66 96 2.6 7.0 0.00 0.01 0.00 89 1018.0
20260906075220 66 115 3.5 7.0 0.00 0.01 0.00 89 1017.9
20260906075132 66 98 3.5 7.0 0.00 0.01 0.00 89 1017.9
20260906075025 66 88 2.6 6.1 0.00 0.01 0.00 89 1017.9
20260906074921 66 94 2.6 6.1 0.00 0.01 0.00 89 1017.9
20260906074833 66 94 1.7 6.1 0.00 0.01 0.00 89 1017.9
20260906074725 66 108 1.7 6.1 0.00 0.01 0.00 89 1017.9
20260906074646 66 108 2.6 6.1 0.00 0.01 0.00 89 1017.8
20260906074537 66 92 2.6 6.1 0.00 0.01 0.00 89 1017.8
20260906074429 66 103 3.5 6.1 0.00 0.01 0.00 89 1017.7
20260906074341 66 110 3.5 6.1 0.00 0.01 0.00 89 1017.8
20260906074233 66 116 3.5 6.1 0.00 0.01 0.00 89 1017.7
20260906074144 66 105 4.3 6.1 0.00 0.01 0.00 89 1017.8
20260906074057 66 101 3.5 6.1 0.00 0.01 0.00 89 1017.7
20260906073931 66 130 2.6 5.2 0.00 0.01 0.00 89 1017.8
20260906073824 66 119 2.6 6.1 0.00 0.01 0.00 89 1017.8
20260906073736 66 98 2.6 6.1 0.00 0.01 0.00 89 1017.8
20260906073627 66 101 1.7 6.1 0.00 0.01 0.00 89 1017.8
20260906073519 66 105 1.7 6.1 0.00 0.01 0.00 89 1017.8
20260906073431 66 105 1.7 6.1 0.00 0.01 0.00 89 1017.8
20260906073323 66 92 1.7 6.1 0.00 0.01 0.00 89 1017.7
20260906073234 66 94 2.6 6.1 0.00 0.01 0.00 89 1017.7
20260906073158 66 94 2.6 6.1 0.00 0.01 0.00 89 1017.7
20260906073053 66 93 3.5 6.1 0.00 0.01 0.00 89 1017.7
20260906072924 66 107 3.5 7.8 0.00 0.01 0.00 89 1017.7
20260906072836 66 95 3.5 7.8 0.00 0.01 0.00 88 1017.7
20260906072728 66 123 4.3 7.8 0.00 0.01 0.00 88 1017.7
20260906072621 66 95 3.5 7.8 0.00 0.01 0.00 88 1017.7
20260906072533 67 90 3.5 7.8 0.00 0.01 0.00 88 1017.7
20260906072425 67 110 3.5 7.8 0.00 0.01 0.00 88 1017.6
20260906072337 67 133 4.3 7.8 0.00 0.01 0.00 88 1017.7
20260906072232 67 96 5.2 7.8 0.00 0.01 0.00 88 1017.6
20260906072125 67 117 5.2 7.8 0.00 0.01 0.00 88 1017.7
20260906072037 67 118 4.3 7.0 0.00 0.01 0.00 88 1017.7
20260906071929 67 113 4.3 7.0 0.00 0.01 0.00 88 1017.7
20260906071842 67 123 4.3 7.0 0.00 0.01 0.00 88 1017.7
20260906071732 67 128 4.3 7.0 0.00 0.01 0.00 88 1017.7
20260906071655 67 116 3.5 7.0 0.00 0.01 0.00 88 1017.7
20260906071525 67 132 3.5 9.6 0.00 0.01 0.00 88 1017.8
20260906071437 67 124 3.5 9.6 0.00 0.01 0.00 88 1017.8
20260906071333 67 107 5.2 9.6 0.00 0.01 0.00 88 1017.7
20260906071225 67 106 4.3 9.6 0.00 0.01 0.00 88 1017.8
20260906071137 67 127 4.3 9.6 0.00 0.01 0.00 88 1017.8
20260906071028 67 101 3.5 9.6 0.00 0.01 0.00 88 1017.7
20260906070940 67 129 5.2 9.6 0.00 0.01 0.00 87 1017.8
20260906070831 67 119 7.0 9.6 0.00 0.01 0.00 87 1017.8
20260906070723 67 124 5.2 9.6 0.00 0.01 0.00 87 1017.8
20260906070635 67 115 4.3 8.7 0.00 0.01 0.00 87 1017.9
20260906070546 67 101 4.3 8.7 0.00 0.01 0.00 87 1017.8
20260906070422 67 105 5.2 8.7 0.00 0.01 0.00 87 1017.9
20260906070334 67 119 4.3 8.7 0.00 0.01 0.00 87 1017.9
20260906070245 67 111 4.3 8.7 0.00 0.05 0.00 87 1017.9
20260906070207 67 79 4.3 8.7 0.00 0.05 0.00 87 1017.9
20260906070037 67 113 5.2 8.7 0.00 0.05 0.00 88 1017.9
20260906065929 67 113 4.3 9.6 0.00 0.05 0.00 88 1018.0
20260906065840 67 113 5.2 9.6 0.00 0.05 0.00 88 1017.9
20260906065732 67 103 5.2 9.6 0.00 0.05 0.00 88 1017.9
20260906065623 67 109 5.2 9.6 0.00 0.05 0.00 88 1018.0
20260906065535 67 85 5.2 9.6 0.00 0.05 0.00 88 1017.9
20260906065431 67 113 6.1 9.6 0.00 0.05 0.00 88 1017.9
20260906065344 67 119 6.1 9.6 0.00 0.05 0.00 88 1017.9
20260906065255 67 96 7.0 9.6 0.00 0.05 0.00 88 1017.9
20260906065207 67 112 5.2 9.6 0.00 0.05 0.00 88 1017.9
20260906065119 67 93 5.2 9.6 0.00 0.05 0.00 88 1017.9
20260906065011 67 85 6.1 9.6 0.00 0.05 0.00 88 1017.9
20260906064901 67 84 6.1 8.7 0.00 0.05 0.00 88 1017.9
20260906064814 67 75 5.2 8.7 0.00 0.05 0.00 88 1017.9
20260906064716 67 123 4.3 10.4 0.00 0.05 0.00 88 1017.9
20260906064526 67 105 5.2 10.4 0.00 0.05 0.00 88 1018.0
20260906064419 67 113 6.1 10.4 0.00 0.05 0.00 88 1018.0
20260906064336 67 115 5.2 10.4 0.00 0.05 0.00 88 1018.0
20260906064247 67 120 4.3 10.4 0.00 0.05 0.00 89 1018.0
20260906064159 67 86 6.1 10.4 0.00 0.05 0.00 89 1018.0
20260906064049 67 121 7.0 10.4 0.00 0.05 0.00 89 1018.0
20260906063920 67 84 7.0 10.4 0.00 0.05 0.00 89 1018.1
20260906063831 67 116 6.1 9.6 0.00 0.05 0.00 89 1018.1
20260906063722 67 121 5.2 9.6 0.00 0.05 0.00 89 1018.0
20260906063634 67 107 6.1 9.6 0.00 0.05 0.00 89 1018.0
20260906063527 67 107 5.2 9.6 0.00 0.05 0.00 89 1018.0
20260906063422 67 89 3.5 7.8 0.00 0.05 0.00 89 1018.0
20260906063334 67 87 4.3 7.8 0.00 0.05 0.00 89 1018.0
20260906063244 67 109 4.3 8.7 0.00 0.05 0.00 89 1018.0
20260906063145 67 89 4.3 8.7 0.00 0.05 0.00 89 1018.0
20260906063037 67 112 4.3 8.7 0.00 0.05 0.00 89 1018.0
20260906062949 67 106 4.3 11.3 0.00 0.05 0.00 89 1018.0
20260906062902 67 76 3.5 11.3 0.00 0.05 0.00 89 1018.0
20260906062753 67 96 3.5 11.3 0.00 0.05 0.00 89 1018.0
20260906062643 68 103 4.3 11.3 0.00 0.05 0.00 90 1018.0
20260906062555 68 94 5.2 11.3 0.00 0.05 0.00 90 1017.9
20260906062426 68 103 6.1 11.3 0.00 0.05 0.00 90 1018.0
20260906062321 68 105 6.1 11.3 0.00 0.05 0.00 90 1017.9
20260906062234 68 106 6.1 11.3 0.00 0.05 0.00 90 1017.9
20260906062127 68 105 4.3 11.3 0.00 0.05 0.00 90 1017.9
20260906062020 68 109 3.5 7.0 0.00 0.05 0.00 90 1017.9
20260906061933 68 101 4.3 9.6 0.00 0.05 0.00 90 1017.9
20260906061844 68 103 4.3 9.6 0.00 0.05 0.00 90 1017.9
20260906061757 68 82 3.5 9.6 0.00 0.05 0.00 90 1017.9
20260906061658 68 112 3.5 9.6 0.00 0.05 0.00 90 1017.9
20260906061529 68 90 4.3 9.6 0.00 0.05 0.00 90 1017.9
20260906061441 68 113 4.3 10.4 0.00 0.05 0.00 90 1017.8
20260906061357 68 89 4.3 10.4 0.00 0.05 0.00 90 1017.8
20260906061228 68 109 5.2 10.4 0.00 0.05 0.00 90 1017.8
20260906061140 68 84 6.1 10.4 0.00 0.05 0.00 90 1017.8
20260906061032 68 107 5.2 10.4 0.00 0.05 0.00 90 1017.7
20260906060924 68 92 4.3 10.4 0.00 0.05 0.00 90 1017.7
20260906060836 68 78 5.2 10.4 0.00 0.05 0.00 90 1017.7
20260906060749 68 105 7.0 10.4 0.00 0.05 0.00 90 1017.7
20260906060621 68 103 7.0 10.4 0.00 0.05 0.00 91 1017.7
20260906060533 68 90 5.2 7.8 0.00 0.05 0.00 91 1017.7
20260906060445 68 101 4.3 7.8 0.00 0.05 0.00 91 1017.6
20260906060400 68 86 3.5 7.0 0.00 0.05 0.00 90 1017.7
20260906060249 68 67 3.5 7.0 0.00 0.06 0.00 90 1017.6
20260906060151 68 108 3.5 7.0 0.00 0.06 0.00 90 1017.6
20260906060022 68 112 4.3 7.0 0.00 0.06 0.00 90 1017.6
20260906055934 68 81 3.5 7.0 0.00 0.06 0.00 90 1017.6
20260906055826 68 84 3.5 7.8 0.00 0.06 0.00 90 1017.7
20260906055739 68 80 4.3 7.8 0.00 0.06 0.00 90 1017.7
20260906055629 68 118 4.3 7.8 0.00 0.06 0.00 90 1017.7
20260906055541 68 102 3.5 7.8 0.00 0.06 0.00 90 1017.8
20260906055452 68 115 2.6 7.8 0.00 0.06 0.00 90 1017.7
20260906055345 68 94 3.5 7.8 0.00 0.06 0.00 90 1017.8
20260906055237 68 95 3.5 7.8 0.00 0.06 0.00 90 1017.8
20260906055128 68 95 3.5 7.8 0.00 0.06 0.00 90 1017.8
20260906055021 68 85 3.5 7.8 0.00 0.06 0.00 90 1017.8
20260906054932 68 67 4.3 7.8 0.00 0.06 0.00 90 1017.8
20260906054824 68 94 4.3 7.8 0.00 0.06 0.00 90 1017.8
20260906054737 68 115 4.3 7.8 0.00 0.06 0.00 90 1017.8
20260906054659 68 91 3.5 7.8 0.00 0.06 0.00 90 1017.8
20260906054549 68 77 3.5 7.0 0.00 0.06 0.00 90 1017.7
20260906054425 68 87 3.5 7.0 0.00 0.06 0.00 90 1017.8
20260906054336 68 94 4.3 7.0 0.00 0.06 0.00 90 1017.7
20260906054229 68 84 4.3 7.8 0.00 0.06 0.00 91 1017.7
20260906054121 68 95 3.5 7.8 0.00 0.06 0.00 91 1017.6
20260906054033 68 81 2.6 7.8 0.00 0.06 0.00 91 1017.7
20260906053945 68 80 3.5 7.8 0.00 0.06 0.00 91 1017.5
20260906053836 68 81 3.5 7.8 0.00 0.06 0.00 91 1017.6
20260906053747 68 89 2.6 7.8 0.00 0.06 0.00 91 1017.5
20260906053659 68 90 3.5 7.8 0.00 0.06 0.00 91 1017.6
20260906053550 68 83 4.3 7.8 0.00 0.06 0.00 91 1017.6
20260906053501 68 66 4.3 7.8 0.00 0.06 0.00 91 1017.5
20260906053355 68 90 4.3 7.8 0.00 0.06 0.00 91 1017.5
20260906053245 68 84 3.5 7.8 0.00 0.06 0.00 91 1017.4
20260906053207 68 75 3.5 7.0 0.00 0.06 0.00 91 1017.4
20260906053037 68 84 3.5 7.0 0.00 0.06 0.00 91 1017.4
20260906052929 68 74 3.5 7.0 0.00 0.06 0.00 91 1017.4
20260906052820 69 81 2.6 7.0 0.00 0.06 0.00 91 1017.5
20260906052733 69 80 3.5 7.0 0.00 0.06 0.00 91 1017.5
20260906052625 69 79 3.5 7.0 0.00 0.06 0.00 91 1017.5
20260906052538 69 81 3.5 7.0 0.00 0.06 0.00 91 1017.5
20260906052449 69 80 4.3 7.0 0.00 0.06 0.00 91 1017.5
20260906052323 69 109 4.3 6.1 0.00 0.06 0.00 91 1017.5
20260906052236 69 78 3.5 5.2 0.00 0.06 0.00 91 1017.5
20260906052127 69 97 2.6 5.2 0.00 0.06 0.00 91 1017.5
20260906052020 69 106 2.6 5.2 0.00 0.06 0.00 91 1017.5
20260906051931 69 65 1.7 5.2 0.00 0.06 0.00 91 1017.5
20260906051824 69 67 1.7 5.2 0.00 0.06 0.00 91 1017.5
20260906051735 69 67 1.7 5.2 0.00 0.06 0.00 91 1017.4
20260906051658 69 67 1.7 5.2 0.00 0.06 0.00 91 1017.4
20260906051532 69 70 2.6 5.2 0.00 0.06 0.00 91 1017.5
20260906051424 69 88 2.6 5.2 0.00 0.06 0.00 91 1017.4
20260906051336 69 73 2.6 6.1 0.00 0.06 0.00 91 1017.3
20260906051249 69 69 2.6 4.3 0.00 0.06 0.00 91 1017.3
20260906051200 69 69 1.7 5.2 0.00 0.06 0.00 91 1017.3
20260906051051 69 68 2.6 5.2 0.00 0.06 0.00 91 1017.4
20260906050942 69 57 1.7 5.2 0.00 0.06 0.00 91 1017.4
20260906050832 69 71 1.7 5.2 0.00 0.06 0.00 91 1017.4
20260906050724 69 71 2.6 5.2 0.00 0.06 0.00 91 1017.4
20260906050637 69 71 2.6 5.2 0.00 0.06 0.00 91 1017.4
20260906050550 69 101 1.7 5.2 0.00 0.06 0.00 91 1017.4
20260906050445 69 80 2.6 5.2 0.00 0.06 0.00 91 1017.4
20260906050358 69 78 2.6 5.2 0.00 0.06 0.00 91 1017.4
20260906050228 69 61 2.6 7.0 0.00 0.06 0.00 91 1017.3
20260906050149 69 84 2.6 7.0 0.00 0.06 0.00 91 1017.3
20260906050041 69 69 2.6 7.0 0.00 0.06 0.00 91 1017.3
20260906045954 69 76 2.6 7.0 0.00 0.06 0.00 91 1017.3
20260906045905 69 85 2.6 7.0 0.00 0.06 0.00 91 1017.3
20260906045756 69 92 3.5 7.8 0.00 0.06 0.00 91 1017.3
20260906045647 69 79 2.6 7.8 0.00 0.06 0.00 91 1017.3
20260906045539 69 89 2.6 7.8 0.00 0.06 0.00 91 1017.3
20260906045431 69 78 3.5 7.8 0.00 0.06 0.00 91 1017.3
20260906045327 69 101 3.5 7.8 0.00 0.06 0.00 91 1017.3
20260906045237 70 71 2.6 7.8 0.00 0.06 0.00 91 1017.3
20260906045149 70 107 4.3 7.8 0.00 0.06 0.00 91 1017.3
20260906045020 70 100 4.3 7.8 0.00 0.06 0.00 91 1017.3
20260906044931 70 53 4.3 7.8 0.00 0.06 0.00 91 1017.3
20260906044823 70 63 3.5 7.8 0.00 0.06 0.00 91 1017.2
20260906044736 70 65 3.5 7.8 0.00 0.06 0.00 91 1017.3
20260906044658 70 82 2.6 7.8 0.00 0.06 0.00 91 1017.3
20260906044530 70 72 3.5 7.8 0.00 0.06 0.00 91 1017.2
20260906044427 70 86 3.5 7.8 0.00 0.06 0.00 91 1017.2
20260906044319 70 75 3.5 7.8 0.00 0.06 0.00 91 1017.2
20260906044232 70 101 4.3 7.8 0.00 0.06 0.00 91 1017.2
20260906044125 70 87 4.3 7.8 0.00 0.06 0.00 91 1017.2
20260906044037 70 86 3.5 8.7 0.00 0.06 0.00 91 1017.2
20260906043930 70 82 4.3 8.7 0.00 0.06 0.00 91 1017.2
20260906043823 70 80 5.2 8.7 0.00 0.06 0.00 91 1017.3
20260906043735 70 82 4.3 8.7 0.00 0.06 0.00 91 1017.2
20260906043652 70 109 4.3 8.7 0.00 0.06 0.00 91 1017.2
20260906043604 70 78 2.6 8.7 0.00 0.06 0.00 92 1017.1
20260906043517 70 80 4.3 8.7 0.00 0.06 0.00 92 1017.2
20260906043407 70 87 5.2 8.7 0.00 0.06 0.00 92 1017.1
20260906043259 70 66 4.3 8.7 0.00 0.06 0.00 92 1017.1
20260906043156 70 84 3.5 8.7 0.00 0.06 0.00 92 1017.1
20260906043028 70 101 3.5 8.7 0.00 0.06 0.00 92 1017.1
20260906042920 70 108 4.3 8.7 0.00 0.06 0.00 92 1017.0
20260906042832 70 83 4.3 8.7 0.00 0.06 0.00 92 1017.1
20260906042725 70 93 4.3 8.7 0.00 0.06 0.00 92 1017.0
20260906042641 70 86 3.5 7.8 0.00 0.06 0.00 92 1017.1
20260906042533 70 90 2.6 7.8 0.00 0.06 0.00 92 1017.0
20260906042425 70 93 2.6 7.8 0.00 0.06 0.00 93 1017.1
20260906042336 70 77 3.5 7.8 0.00 0.06 0.00 93 1017.1
20260906042249 70 71 5.2 7.8 0.00 0.06 0.00 93 1017.1
20260906042140 70 69 5.2 7.8 0.00 0.06 0.00 93 1017.0
20260906042051 70 82 4.3 7.0 0.00 0.06 0.00 93 1017.1
20260906041922 70 80 4.3 7.0 0.00 0.06 0.00 93 1017.1
20260906041835 70 70 4.3 7.0 0.00 0.06 0.00 93 1017.0
20260906041728 70 64 3.5 7.0 0.00 0.06 0.00 93 1017.1
20260906041654 70 76 3.5 7.0 0.00 0.06 0.00 93 1017.1
20260906041544 70 82 3.5 7.0 0.00 0.06 0.00 93 1017.1
20260906041457 70 71 3.5 7.0 0.00 0.06 0.00 93 1017.1
20260906041347 70 77 3.5 7.0 0.00 0.06 0.00 93 1017.1
20260906041237 70 44 3.5 7.0 0.00 0.06 0.00 94 1017.1
20260906041129 70 64 3.5 7.0 0.00 0.06 0.00 94 1017.2
20260906041041 70 78 2.6 7.0 0.00 0.06 0.00 94 1017.2
20260906040930 70 49 2.6 7.0 0.00 0.06 0.00 94 1017.1
20260906040822 71 57 3.5 7.0 0.00 0.06 0.00 94 1017.2
20260906040734 71 51 3.5 7.0 0.00 0.06 0.00 94 1017.2
20260906040630 71 59 3.5 7.0 0.00 0.06 0.00 94 1017.2
20260906040522 71 70 2.6 7.0 0.00 0.06 0.00 94 1017.2
20260906040434 71 52 1.7 7.0 0.00 0.06 0.00 94 1017.2
20260906040346 71 71 2.6 7.0 0.00 0.06 0.00 94 1017.1
20260906040257 71 35 3.5 7.0 0.00 0.06 0.00 94 1017.1
20260906040215 71 52 2.6 7.0 0.00 0.06 0.06 94 1017.1
20260906040106 71 57 1.7 4.3 0.00 0.06 0.06 94 1017.1
20260906035928 71 57 2.6 4.3 0.00 0.06 0.06 94 1017.1
20260906035820 71 47 2.6 4.3 0.00 0.06 0.06 94 1017.1
20260906035732 71 41 2.6 4.3 0.00 0.06 0.06 94 1017.1
20260906035649 71 78 2.6 4.3 0.00 0.06 0.06 94 1017.0
20260906035541 71 38 2.6 4.3 0.00 0.06 0.06 94 1017.0
20260906035451 71 40 1.7 5.2 0.00 0.06 0.06 94 1017.0
20260906035403 71 54 1.7 5.2 0.00 0.06 0.06 94 1017.0
20260906035253 71 51 2.6 5.2 0.00 0.06 0.06 94 1017.1
20260906035124 71 69 2.6 5.2 0.00 0.06 0.06 94 1017.1
20260906035037 71 76 2.6 5.2 0.00 0.06 0.06 94 1017.0
20260906034929 71 42 2.6 5.2 0.00 0.06 0.06 94 1017.1
20260906034822 71 36 2.6 5.2 0.00 0.06 0.06 94 1017.0
20260906034735 71 67 2.6 5.2 0.00 0.06 0.06 94 1017.1
20260906034701 71 67 1.7 5.2 0.00 0.06 0.06 94 1017.1
20260906034552 71 78 0.0 0.0 0.00 0.06 0.06 94 1017.0
20260906034442 71 78 0.0 0.0 0.00 0.06 0.06 94 1017.1
20260906034333 71 78 0.0 0.0 0.00 0.06 0.06 94 1017.1
20260906034246 71 78 0.0 0.0 0.00 0.06 0.06 94 1017.0
20260906034159 71 78 0.0 0.0 0.00 0.06 0.06 94 1017.0
20260906034110 71 78 0.0 0.0 0.00 0.06 0.06 94 1017.0
20260906034000 71 78 0.0 0.0 0.00 0.06 0.06 94 1017.0
20260906033850 71 78 0.0 0.0 0.00 0.06 0.06 94 1017.0
20260906033741 71 78 0.0 0.0 0.00 0.06 0.06 94 1017.0
20260906033653 71 78 0.0 0.0 0.00 0.06 0.06 94 1017.0
20260906033604 71 78 0.0 0.0 0.00 0.06 0.06 94 1016.9
20260906033455 71 78 0.0 0.0 0.00 0.06 0.06 94 1017.1
20260906033331 71 78 0.0 0.0 0.00 0.06 0.06 94 1017.0
20260906033222 72 78 0.0 0.0 0.00 0.06 0.06 94 1017.0
20260906033145 72 78 0.0 0.0 0.00 0.06 0.06 94 1017.0
20260906033037 71 78 0.0 0.0 0.00 0.06 0.06 94 1017.0
20260906032930 71 78 0.0 0.0 0.00 0.06 0.06 94 1017.0
20260906032821 72 78 0.0 0.0 0.00 0.06 0.06 94 1017.0
20260906032734 72 78 0.0 0.0 0.00 0.06 0.06 94 1017.1
20260906032646 72 78 0.0 0.0 0.00 0.06 0.06 94 1017.0
20260906032538 72 78 0.0 0.0 0.00 0.06 0.06 94 1017.0
20260906032453 72 78 0.0 0.0 0.00 0.06 0.06 94 1017.1
20260906032325 72 78 0.0 0.0 0.00 0.06 0.06 94 1017.0
20260906032238 72 78 0.0 0.0 0.00 0.06 0.06 94 1017.1
20260906032129 72 78 0.0 0.0 0.00 0.06 0.06 94 1017.1
20260906032040 72 78 0.0 0.0 0.00 0.06 0.06 94 1017.1
20260906031952 72 78 0.0 0.0 0.00 0.06 0.06 94 1017.1
20260906031843 72 78 0.0 0.0 0.00 0.06 0.06 94 1017.1
20260906031756 72 78 0.0 0.0 0.00 0.06 0.06 94 1017.1
20260906031720 72 78 0.0 0.0 0.00 0.06 0.06 94 1017.0
20260906031528 72 78 0.0 0.9 0.00 0.06 0.06 94 1017.0
20260906031444 72 78 0.0 1.7 0.00 0.06 0.06 93 1017.1
20260906031336 72 78 0.0 1.7 0.00 0.06 0.06 93 1017.1
20260906031248 72 78 0.0 1.7 0.00 0.06 0.06 93 1017.0
20260906031200 72 78 0.0 1.7 0.00 0.06 0.06 93 1017.0
20260906031030 72 78 0.0 1.7 0.00 0.06 0.06 93 1017.1
20260906030921 72 78 0.0 1.7 0.00 0.06 0.06 93 1017.0
20260906030833 72 78 0.0 1.7 0.00 0.06 0.06 93 1017.0
20260906030744 72 78 0.9 1.7 0.00 0.06 0.06 93 1017.0
20260906030635 72 78 0.9 1.7 0.00 0.06 0.06 93 1017.0
20260906030527 72 78 0.9 1.7 0.00 0.06 0.06 93 1017.0
20260906030423 72 78 0.9 1.7 0.00 0.06 0.06 93 1017.0
20260906030336 72 78 0.0 1.7 0.00 0.06 0.06 93 1017.0
20260906030226 72 78 0.0 1.7 0.00 0.06 0.06 93 1017.0
20260906030147 72 78 0.0 1.7 0.00 0.06 0.06 93 1017.0
20260906030039 72 78 0.9 1.7 0.00 0.06 0.06 93 1017.0
20260906025930 72 78 0.9 1.7 0.00 0.06 0.06 93 1017.0
20260906025843 72 78 0.9 1.7 0.00 0.06 0.06 93 1016.9
20260906025754 72 78 0.9 1.7 0.00 0.06 0.06 93 1016.9
20260906025646 72 78 0.9 1.7 0.00 0.06 0.06 93 1016.9
20260906025537 72 78 0.9 1.7 0.00 0.06 0.06 92 1016.8
20260906025431 72 78 0.9 1.7 0.00 0.06 0.06 92 1016.9
20260906025343 72 78 0.9 1.7 0.00 0.06 0.06 92 1016.9
20260906025233 72 78 0.9 1.7 0.00 0.06 0.06 92 1016.9
20260906025126 72 78 0.9 1.7 0.00 0.06 0.06 92 1016.9
20260906025038 72 78 0.0 0.9 0.00 0.06 0.06 92 1016.9
20260906024930 72 78 0.0 0.0 0.00 0.06 0.06 92 1016.8
20260906024842 72 78 0.0 0.0 0.00 0.06 0.06 92 1016.9
20260906024754 72 78 0.0 0.0 0.00 0.06 0.06 92 1016.8
20260906024655 72 78 0.0 0.9 0.00 0.06 0.06 92 1016.8
20260906024526 72 78 0.0 0.9 0.00 0.06 0.06 92 1016.9
20260906024421 72 78 0.0 0.9 0.00 0.06 0.06 92 1016.9
20260906024333 72 78 0.0 0.9 0.00 0.06 0.06 92 1016.9
20260906024225 72 78 0.0 0.9 0.00 0.06 0.06 92 1016.8
20260906024137 72 78 0.0 0.9 0.00 0.06 0.06 92 1016.9
20260906024029 72 78 0.0 0.9 0.00 0.06 0.06 92 1016.8
20260906023942 72 78 0.0 0.9 0.00 0.06 0.06 92 1016.8
20260906023855 72 78 0.0 0.9 0.00 0.06 0.06 92 1016.9
20260906023746 72 78 0.0 0.9 0.00 0.06 0.06 92 1016.9
20260906023638 72 78 0.0 0.9 0.00 0.06 0.06 92 1016.9
20260906023535 72 78 0.0 0.9 0.00 0.06 0.06 92 1016.8
20260906023429 72 78 0.0 0.9 0.00 0.06 0.06 92 1016.9
20260906023340 72 78 0.0 0.9 0.00 0.06 0.06 92 1016.9
20260906023250 72 78 0.0 2.6 0.00 0.06 0.06 92 1016.9
20260906023152 72 78 0.0 2.6 0.00 0.06 0.06 92 1016.9
20260906023043 72 78 0.0 2.6 0.00 0.06 0.06 92 1016.9
20260906022955 72 78 0.0 2.6 0.00 0.06 0.06 92 1016.9
20260906022845 72 78 0.0 2.6 0.00 0.06 0.06 92 1016.8
20260906022756 72 78 0.0 2.6 0.00 0.06 0.06 92 1016.8
20260906022628 72 78 0.0 2.6 0.00 0.06 0.06 92 1016.9
20260906022542 72 78 0.9 2.6 0.00 0.06 0.06 92 1016.8
20260906022457 72 78 0.9 2.6 0.00 0.06 0.06 92 1016.8
20260906022409 72 78 0.9 2.6 0.00 0.06 0.06 92 1016.8
20260906022322 72 78 0.9 2.6 0.00 0.06 0.06 92 1016.9
20260906022214 72 78 0.9 2.6 0.00 0.06 0.06 92 1016.9
20260906022104 72 78 1.7 2.6 0.00 0.06 0.06 92 1016.8
20260906021955 72 78 0.9 2.6 0.00 0.06 0.06 92 1016.8
20260906021827 72 78 0.0 2.6 0.00 0.06 0.06 92 1016.8
20260906021720 72 78 0.0 3.5 0.00 0.06 0.06 92 1016.8
20260906021642 72 78 0.0 3.5 0.00 0.06 0.06 92 1016.9
20260906021532 72 78 0.0 3.5 0.00 0.06 0.06 91 1016.8
20260906021429 72 78 0.0 3.5 0.00 0.06 0.06 91 1016.8
20260906021342 72 78 0.0 3.5 0.00 0.06 0.06 92 1016.9
20260906021255 72 78 0.9 3.5 0.00 0.06 0.06 91 1016.8
20260906021037 72 78 0.9 3.5 0.00 0.06 0.06 92 1016.8
20260906020930 72 78 0.9 3.5 0.00 0.06 0.06 91 1016.8
20260906020842 72 78 0.0 0.0 0.00 0.06 0.06 91 1016.7
20260906020752 72 78 0.0 0.0 0.00 0.06 0.06 92 1016.8
20260906020624 72 78 0.0 0.0 0.00 0.06 0.06 91 1016.7
20260906020520 72 78 0.0 0.0 0.00 0.06 0.06 91 1016.7
20260906020432 72 78 0.0 0.0 0.00 0.06 0.06 91 1016.7
20260906020324 72 78 0.0 0.0 0.00 0.06 0.06 91 1016.7
20260906020235 72 78 0.0 0.0 0.00 0.06 0.06 91 1016.8
20260906020157 72 78 0.0 0.0 0.00 0.06 0.06 91 1016.8
20260906020028 72 78 0.0 0.0 0.00 0.06 0.06 91 1016.7
20260906015939 72 78 0.0 0.0 0.00 0.06 0.06 91 1016.7
20260906015831 72 78 0.0 0.0 0.00 0.06 0.06 91 1016.7
20260906015723 72 78 0.0 0.0 0.00 0.06 0.06 91 1016.7
20260906015619 72 78 0.0 0.0 0.00 0.06 0.06 91 1016.9
20260906015532 72 78 0.0 0.0 0.00 0.06 0.06 91 1016.8
20260906015424 72 78 0.0 0.0 0.00 0.06 0.06 91 1016.7
20260906015336 72 78 0.0 0.0 0.00 0.06 0.06 91 1016.8
20260906015229 72 78 0.0 0.0 0.00 0.06 0.06 91 1016.7
20260906015120 72 78 0.0 0.0 0.00 0.06 0.06 91 1016.8
20260906015032 72 78 0.0 0.0 0.00 0.06 0.06 91 1016.8
20260906014944 72 78 0.0 0.0 0.00 0.06 0.06 91 1016.7
20260906014835 72 78 0.0 0.0 0.00 0.06 0.06 91 1016.7
20260906014732 72 78 0.0 0.0 0.00 0.06 0.06 91 1016.7
20260906014653 72 78 0.0 0.0 0.00 0.06 0.06 91 1016.7
20260906014525 72 78 0.0 0.0 0.00 0.06 0.06 91 1016.7
20260906014435 72 78 0.0 0.0 0.00 0.06 0.06 91 1016.7
20260906014328 72 78 0.0 0.0 0.00 0.06 0.06 90 1016.6
20260906014241 72 78 0.0 0.0 0.00 0.06 0.06 90 1016.6
20260906014132 72 78 0.0 0.0 0.00 0.06 0.06 90 1016.6
20260906014023 72 78 0.0 0.0 0.00 0.06 0.06 90 1016.5
20260906013935 72 78 0.0 0.0 0.00 0.06 0.06 90 1016.6
20260906013830 72 78 0.0 0.0 0.00 0.06 0.06 90 1016.6
20260906013743 72 78 0.0 0.0 0.00 0.06 0.06 90 1016.6
20260906013634 72 78 0.0 0.0 0.00 0.06 0.06 90 1016.6
20260906013546 72 78 0.0 0.9 0.00 0.06 0.06 90 1016.5
20260906013458 72 78 0.0 2.6 0.00 0.06 0.06 90 1016.5
20260906013329 72 78 0.0 3.5 0.00 0.06 0.06 90 1016.5
20260906013239 72 78 0.0 3.5 0.00 0.06 0.06 90 1016.5
20260906013202 73 78 0.0 3.5 0.00 0.06 0.06 90 1016.5
20260906013031 73 78 0.0 3.5 0.00 0.06 0.06 90 1016.5
20260906012944 73 78 0.0 3.5 0.00 0.06 0.06 90 1016.4
20260906012856 73 78 0.9 4.3 0.00 0.06 0.06 90 1016.5
20260906012730 73 78 1.7 4.3 0.00 0.06 0.06 90 1016.4
20260906012622 73 78 1.7 4.3 0.00 0.06 0.06 90 1016.4
20260906012534 73 78 1.7 4.3 0.00 0.06 0.06 90 1016.4
20260906012445 73 78 1.7 4.3 0.00 0.06 0.06 90 1016.3
20260906012357 73 78 1.7 6.1 0.00 0.06 0.06 90 1016.4
20260906012228 73 78 1.7 6.1 0.00 0.06 0.06 90 1016.3
20260906012139 73 78 1.7 6.1 0.00 0.06 0.06 90 1016.4
20260906012030 73 78 2.6 6.1 0.00 0.06 0.06 90 1016.3
20260906011943 73 48 2.6 6.1 0.00 0.06 0.06 90 1016.4
20260906011854 73 54 2.6 6.1 0.00 0.06 0.06 90 1016.4
20260906011739 73 54 2.6 6.1 0.00 0.06 0.06 90 1016.3
20260906011641 73 59 3.5 7.8 0.00 0.06 0.06 90 1016.3
20260906011533 73 105 3.5 7.8 0.00 0.06 0.06 90 1016.4
20260906011425 73 71 3.5 7.8 0.00 0.06 0.06 90 1016.3
20260906011337 73 80 3.5 7.8 0.00 0.06 0.06 90 1016.4
20260906011228 73 61 3.5 7.8 0.00 0.06 0.06 89 1016.3
20260906011140 73 76 2.6 7.8 0.00 0.06 0.06 89 1016.3
20260906011053 73 78 3.5 7.8 0.00 0.06 0.06 89 1016.3
20260906010922 73 53 4.3 7.8 0.00 0.06 0.06 89 1016.2
20260906010838 73 65 5.2 7.8 0.00 0.06 0.06 89 1016.2
20260906010730 73 84 4.3 7.0 0.00 0.06 0.06 89 1016.2
20260906010621 73 66 2.6 7.0 0.00 0.06 0.06 89 1016.2
20260906010533 73 61 2.6 7.0 0.00 0.06 0.06 89 1016.3
20260906010444 73 74 2.6 8.7 0.00 0.06 0.06 89 1016.3
20260906010358 73 74 3.5 8.7 0.00 0.06 0.06 89 1016.3
20260906010228 73 64 4.3 8.7 0.00 0.06 0.06 89 1016.3
20260906010151 73 69 4.3 8.7 0.00 0.06 0.06 89 1016.3
20260906010021 73 47 1.7 8.7 0.00 0.06 0.06 89 1016.2
20260906005937 73 68 2.6 8.7 0.00 0.06 0.06 89 1016.2
20260906005827 73 68 3.5 8.7 0.00 0.06 0.06 89 1016.3
20260906005740 73 72 4.3 8.7 0.00 0.06 0.06 89 1016.3
20260906005633 73 65 4.3 8.7 0.00 0.06 0.06 89 1016.3
20260906005544 73 53 3.5 7.8 0.00 0.06 0.06 89 1016.3
20260906005435 73 60 3.5 7.8 0.00 0.06 0.06 89 1016.3
20260906005328 73 57 2.6 7.0 0.00 0.06 0.06 89 1016.1
20260906005221 73 65 2.6 7.0 0.00 0.06 0.06 89 1016.2
20260906005133 73 84 2.6 7.0 0.00 0.06 0.06 89 1016.2
20260906005028 73 51 3.5 7.0 0.00 0.06 0.06 89 1016.2
20260906004921 73 71 3.5 7.0 0.00 0.06 0.06 89 1016.2
20260906004833 73 77 4.3 7.0 0.00 0.06 0.06 89 1016.2
20260906004744 73 76 3.5 7.0 0.00 0.06 0.06 89 1016.2
20260906004706 73 72 3.5 7.0 0.00 0.06 0.06 89 1016.2
20260906004559 73 73 3.5 7.0 0.00 0.06 0.06 88 1016.2
20260906004430 73 49 2.6 7.0 0.00 0.06 0.06 89 1016.3
20260906004322 73 80 3.5 7.0 0.00 0.06 0.06 88 1016.2
20260906004234 73 17 3.5 7.8 0.00 0.06 0.06 88 1016.3
20260906004130 73 82 3.5 7.8 0.00 0.06 0.06 88 1016.1
20260906004043 73 74 2.6 8.7 0.00 0.06 0.06 88 1016.2
20260906003933 73 44 3.5 8.7 0.00 0.06 0.06 88 1016.2
20260906003827 73 63 3.5 8.7 0.00 0.06 0.06 88 1016.1
20260906003738 73 51 3.5 8.7 0.00 0.06 0.06 88 1016.1
20260906003630 73 69 2.6 8.7 0.00 0.06 0.06 88 1016.0
20260906003522 73 78 2.6 8.7 0.00 0.06 0.06 88 1016.0
20260906003433 73 67 4.3 8.7 0.00 0.06 0.06 88 1016.0
20260906003327 73 94 5.2 8.7 0.00 0.06 0.06 88 1016.0
20260906003220 73 67 4.3 8.7 0.00 0.06 0.06 88 1016.0
20260906003144 73 119 4.3 8.7 0.00 0.06 0.06 88 1016.0
20260906003035 73 72 4.3 7.8 0.00 0.06 0.06 88 1016.0
20260906002928 73 80 4.3 7.8 0.00 0.06 0.06 88 1016.0
20260906002821 73 78 3.5 7.8 0.00 0.06 0.06 88 1015.9
20260906002732 73 90 3.5 7.8 0.00 0.06 0.06 88 1015.9
20260906002645 73 87 2.6 7.8 0.00 0.06 0.06 88 1015.8
20260906002535 73 105 2.6 7.8 0.00 0.06 0.06 88 1015.9
20260906002426 73 107 3.5 12.2 0.00 0.06 0.06 88 1015.8
20260906002343 73 77 4.3 12.2 0.00 0.06 0.06 88 1015.8
20260906002254 73 85 4.3 12.2 0.00 0.06 0.06 88 1015.8
20260906002146 73 98 5.2 12.2 0.00 0.06 0.06 88 1015.9
20260906002057 73 93 5.2 12.2 0.00 0.06 0.06 88 1015.8
20260906001927 73 97 5.2 12.2 0.00 0.06 0.06 88 1015.8
20260906001839 73 84 5.2 12.2 0.00 0.06 0.06 88 1015.8
20260906001731 73 69 6.1 12.2 0.00 0.06 0.06 88 1015.8
20260906001652 73 63 7.8 12.2 0.00 0.06 0.06 88 1015.8
20260906001523 73 107 7.0 12.2 0.00 0.06 0.06 88 1015.8
20260906001435 73 93 4.3 10.4 0.00 0.06 0.06 88 1015.8
20260906001332 73 89 4.3 10.4 0.00 0.06 0.06 88 1015.8
20260906001225 73 96 4.3 10.4 0.00 0.06 0.06 88 1015.7
20260906001137 73 87 5.2 10.4 0.00 0.06 0.06 88 1015.8
20260906001029 74 74 7.0 10.4 0.00 0.06 0.06 88 1015.7
20260906000921 74 76 5.2 8.7 0.00 0.06 0.06 88 1015.8
20260906000833 74 24 3.5 8.7 0.00 0.06 0.06 88 1015.7
20260906000726 74 44 4.3 8.7 0.00 0.06 0.06 88 1015.8
20260906000637 74 86 3.5 8.7 0.00 0.06 0.06 88 1015.7
20260906000552 74 55 2.6 9.6 0.00 0.06 0.06 88 1015.6
20260906000423 74 57 3.5 9.6 0.00 0.06 0.06 88 1015.6
20260906000333 74 71 5.2 9.6 0.00 0.06 0.06 88 1015.6
20260906000226 74 92 6.1 9.6 0.00 0.06 0.06 88 1015.6
20260906000146 74 86 5.2 9.6 0.00 0.06 0.06 88 1015.7
20260906000036 74 81 5.2 9.6 0.00 0.06 0.06 88 1015.6
20260905235929 74 54 5.2 9.6 0.00 0.06 0.06 88 1015.6
20260905235822 74 78 5.2 9.6 0.00 0.06 0.06 88 1015.6
20260905235734 74 85 5.2 9.6 0.00 0.06 0.06 88 1015.7
20260905235630 74 58 4.3 7.8 0.00 0.06 0.06 88 1015.6
20260905235542 74 44 3.5 7.8 0.00 0.06 0.06 88 1015.8
20260905235432 74 54 4.3 7.8 0.00 0.06 0.06 88 1015.6
20260905235324 74 75 4.3 7.8 0.00 0.06 0.06 88 1015.8
20260905235235 74 51 3.5 10.4 0.00 0.06 0.06 88 1015.7
20260905235128 74 69 3.5 11.3 0.00 0.06 0.06 88 1015.6
20260905235020 74 63 2.6 11.3 0.00 0.06 0.06 88 1015.6
20260905234933 74 55 3.5 11.3 0.00 0.06 0.06 88 1015.6
20260905234829 74 68 4.3 11.3 0.00 0.06 0.06 88 1015.6
20260905234722 74 82 4.3 11.3 0.00 0.06 0.06 88 1015.5
20260905234644 74 113 4.3 11.3 0.00 0.06 0.06 88 1015.6
20260905234534 74 50 5.2 11.3 0.00 0.06 0.06 88 1015.5
20260905234427 74 109 6.1 11.3 0.00 0.06 0.06 88 1015.5
20260905234339 74 90 6.1 11.3 0.00 0.06 0.06 88 1015.5
20260905234232 74 85 5.2 9.6 0.00 0.06 0.06 88 1015.5
20260905234124 74 74 3.5 9.6 0.00 0.06 0.06 88 1015.5
20260905234020 74 90 4.3 9.6 0.00 0.06 0.06 88 1015.5
20260905233933 74 71 4.3 9.6 0.00 0.06 0.06 88 1015.6
20260905233824 74 72 3.5 10.4 0.00 0.06 0.06 88 1015.5
20260905233736 74 62 4.3 10.4 0.00 0.06 0.06 88 1015.6
20260905233627 74 73 5.2 10.4 0.00 0.06 0.06 88 1015.5
20260905233519 74 72 5.2 10.4 0.00 0.06 0.06 88 1015.5
20260905233431 74 95 5.2 10.4 0.00 0.06 0.06 88 1015.5
20260905233322 74 74 5.2 10.4 0.00 0.06 0.06 88 1015.6
20260905233232 74 101 4.3 10.4 0.00 0.06 0.06 88 1015.6
20260905233159 74 90 4.3 10.4 0.00 0.06 0.06 88 1015.6
20260905233048 74 86 6.1 10.4 0.00 0.06 0.06 88 1015.5
20260905232920 74 75 5.2 10.4 0.00 0.06 0.06 88 1015.5
20260905232832 75 92 5.2 10.4 0.00 0.06 0.06 88 1015.5
20260905232725 75 65 5.2 10.4 0.00 0.06 0.06 88 1015.6
20260905232638 75 66 4.3 10.4 0.00 0.06 0.06 88 1015.6
20260905232530 75 80 5.2 10.4 0.00 0.06 0.06 88 1015.5
20260905232423 75 80 4.3 10.4 0.00 0.06 0.06 88 1015.5
20260905232320 75 34 4.3 8.7 0.00 0.06 0.06 88 1015.4
20260905232233 75 92 4.3 8.7 0.00 0.06 0.06 88 1015.5
20260905232124 75 86 4.3 8.7 0.00 0.06 0.06 88 1015.5
20260905232036 75 76 4.3 8.7 0.00 0.06 0.06 88 1015.5
20260905231928 75 104 4.3 8.7 0.00 0.06 0.06 88 1015.5
20260905231838 75 74 2.6 8.7 0.00 0.06 0.06 88 1015.5
20260905231730 75 67 2.6 8.7 0.00 0.06 0.06 88 1015.5
20260905231653 75 74 3.5 8.7 0.00 0.06 0.06 88 1015.5
20260905231525 75 86 4.3 8.7 0.00 0.06 0.06 88 1015.6
20260905231421 75 59 2.6 8.7 0.00 0.06 0.06 88 1015.5
20260905231333 75 63 2.6 10.4 0.00 0.06 0.06 88 1015.6
20260905231227 75 93 2.6 10.4 0.00 0.06 0.06 88 1015.5
20260905231119 75 75 3.5 10.4 0.00 0.06 0.06 88 1015.5
20260905231031 75 94 4.3 10.4 0.00 0.06 0.06 88 1015.5
20260905230924 75 75 5.2 10.4 0.00 0.06 0.06 88 1015.5
20260905230835 75 96 4.3 10.4 0.00 0.06 0.06 88 1015.5
20260905230727 75 84 4.3 10.4 0.00 0.06 0.06 88 1015.4
20260905230644 75 55 5.2 10.4 0.00 0.06 0.06 88 1015.4
20260905230535 75 78 5.2 10.4 0.00 0.06 0.06 88 1015.4
20260905230426 75 109 5.2 10.4 0.00 0.06 0.06 88 1015.4
20260905230339 75 51 7.0 10.4 0.00 0.06 0.06 88 1015.3
20260905230230 75 61 5.2 10.4 0.00 0.06 0.06 88 1015.5
20260905230151 75 31 4.3 10.4 0.00 0.06 0.06 88 1015.5
20260905230023 75 72 4.3 10.4 0.00 0.06 0.06 88 1015.4
20260905225935 75 32 4.3 10.4 0.00 0.06 0.06 88 1015.4
20260905225827 75 43 4.3 10.4 0.00 0.06 0.06 88 1015.4
20260905225723 75 13 4.3 10.4 0.00 0.06 0.06 88 1015.4
20260905225635 75 78 5.2 10.4 0.00 0.06 0.06 88 1015.3
20260905225528 75 86 5.2 10.4 0.00 0.06 0.06 88 1015.3
20260905225420 75 53 5.2 12.2 0.00 0.06 0.06 88 1015.3
20260905225332 75 65 4.3 13.0 0.00 0.06 0.06 88 1015.3
20260905225223 75 86 6.1 13.0 0.00 0.06 0.06 88 1015.2
20260905225135 75 83 7.0 13.0 0.00 0.06 0.06 88 1015.3
20260905225047 75 87 6.1 13.0 0.00 0.06 0.06 88 1015.3
20260905224959 75 69 5.2 13.0 0.00 0.06 0.06 88 1015.3
20260905224855 75 147 5.2 13.0 0.00 0.06 0.06 88 1015.2
20260905224726 75 109 7.0 13.0 0.00 0.06 0.06 88 1015.3
20260905224648 75 62 7.0 13.0 0.00 0.06 0.06 88 1015.2
20260905224539 75 94 7.0 13.0 0.00 0.06 0.06 88 1015.3
20260905224429 75 77 6.1 10.4 0.00 0.06 0.06 88 1015.1
20260905224341 75 80 5.2 10.4 0.00 0.06 0.06 88 1015.2
20260905224253 75 53 4.3 10.4 0.00 0.06 0.06 88 1015.2
20260905224206 75 92 4.3 11.3 0.00 0.06 0.06 88 1015.2
20260905224057 75 47 4.3 11.3 0.00 0.06 0.06 88 1015.3
20260905223928 75 88 6.1 11.3 0.00 0.06 0.06 88 1015.2
20260905223824 75 82 5.2 11.3 0.00 0.06 0.06 88 1015.2
20260905223736 76 38 4.3 11.3 0.00 0.06 0.06 88 1015.2
20260905223648 75 59 5.2 11.3 0.00 0.06 0.06 88 1015.3
20260905223559 75 61 7.0 11.3 0.00 0.06 0.06 88 1015.2
20260905223450 76 34 6.1 11.3 0.00 0.06 0.06 88 1015.2
20260905223340 76 67 6.1 11.3 0.00 0.06 0.06 88 1015.3
20260905223254 76 344 5.2 11.3 0.00 0.06 0.06 88 1015.3
20260905223214 76 80 5.2 11.3 0.00 0.06 0.06 88 1015.2
20260905223025 76 34 6.1 11.3 0.00 0.06 0.06 88 1015.2
20260905222936 76 49 7.0 11.3 0.00 0.06 0.06 88 1015.2
20260905222833 76 32 5.2 11.3 0.00 0.06 0.06 88 1015.1
20260905222726 76 57 5.2 11.3 0.00 0.06 0.06 88 1015.2
20260905222637 76 12 5.2 11.3 0.00 0.06 0.06 88 1015.2
20260905222529 76 67 5.2 11.3 0.00 0.06 0.06 88 1015.2
20260905222442 76 98 7.0 11.3 0.00 0.06 0.06 87 1015.2
20260905222355 76 34 7.0 11.3 0.00 0.06 0.06 87 1015.1
20260905222246 76 68 7.0 11.3 0.00 0.06 0.06 87 1015.1
20260905222158 76 80 7.0 14.8 0.00 0.06 0.06 87 1015.2
20260905222029 76 24 7.8 14.8 0.00 0.06 0.06 87 1015.1
20260905221925 76 59 7.8 14.8 0.00 0.06 0.06 87 1015.1
20260905221837 77 72 7.8 15.6 0.00 0.06 0.06 87 1015.0
20260905221730 77 87 6.1 15.6 0.00 0.06 0.06 87 1015.1
20260905221651 77 69 4.3 15.6 0.00 0.06 0.06 87 1015.1
20260905221523 77 49 5.2 15.6 0.00 0.06 0.06 86 1014.9
20260905221435 77 58 7.0 15.6 0.00 0.06 0.06 86 1014.9
20260905221327 77 78 7.0 15.6 0.00 0.06 0.06 86 1015.0
20260905221239 77 44 6.1 15.6 0.00 0.06 0.06 86 1014.9
20260905221129 77 70 8.7 15.6 0.00 0.06 0.06 85 1014.9
20260905221025 78 50 7.8 15.6 0.00 0.06 0.06 85 1014.8
20260905220937 78 82 7.0 13.0 0.00 0.06 0.06 85 1014.8
20260905220825 78 73 8.7 13.0 0.00 0.06 0.06 85 1014.8
20260905220738 78 44 9.6 13.0 0.00 0.06 0.06 85 1014.8
20260905220630 78 61 8.7 13.0 0.00 0.06 0.06 85 1014.9
20260905220523 79 73 6.1 11.3 0.00 0.06 0.06 85 1014.8
20260905220433 79 83 6.1 11.3 0.00 0.06 0.06 85 1014.7
20260905220326 79 71 6.1 11.3 0.00 0.06 0.06 85 1014.7
20260905220221 79 62 7.0 11.3 0.00 0.06 0.06 85 1014.7
20260905220142 79 68 7.0 11.3 0.00 0.06 0.06 85 1014.8
20260905220033 79 12 6.1 10.4 0.00 0.06 0.06 86 1014.8
20260905215925 79 35 5.2 10.4 0.00 0.06 0.06 85 1014.7
20260905215838 79 15 4.3 9.6 0.00 0.06 0.06 85 1014.7
20260905215730 79 30 4.3 9.6 0.00 0.06 0.06 85 1014.7
20260905215623 79 22 4.3 10.4 0.00 0.06 0.06 85 1014.7
20260905215535 79 73 5.2 10.4 0.00 0.06 0.06 85 1014.6
20260905215430 79 60 5.2 10.4 0.00 0.06 0.06 85 1014.6
20260905215322 79 56 6.1 10.4 0.00 0.06 0.06 84 1014.7
20260905215233 79 82 7.0 10.4 0.00 0.06 0.06 84 1014.7
20260905215126 79 51 7.0 10.4 0.00 0.06 0.06 84 1014.6
20260905215038 79 62 6.1 10.4 0.00 0.06 0.06 84 1014.6
20260905214930 79 61 7.0 10.4 0.00 0.06 0.06 84 1014.7
20260905214822 79 60 7.0 10.4 0.00 0.06 0.06 84 1014.6
20260905214734 79 76 6.1 11.3 0.00 0.06 0.06 84 1014.6
20260905214656 79 40 6.1 11.3 0.00 0.06 0.06 84 1014.6
20260905214532 79 88 4.3 11.3 0.00 0.06 0.06 84 1014.5
20260905214424 79 88 5.2 11.3 0.00 0.06 0.06 84 1014.6
20260905214336 79 49 5.2 11.3 0.00 0.06 0.06 84 1014.6
20260905214248 80 67 5.2 11.3 0.00 0.06 0.06 83 1014.5
20260905214119 80 80 6.1 11.3 0.00 0.06 0.06 83 1014.6
20260905214032 80 27 7.0 11.3 0.00 0.06 0.06 83 1014.5
20260905213944 80 30 7.8 11.3 0.00 0.06 0.06 82 1014.7
20260905213855 80 61 7.8 11.3 0.00 0.06 0.06 83 1014.7
20260905213808 80 63 7.0 11.3 0.00 0.06 0.06 83 1014.5
20260905213721 80 44 6.1 11.3 0.00 0.06 0.06 84 1014.6
20260905213616 80 35 5.2 8.7 0.00 0.06 0.06 84 1014.6
20260905213508 80 78 4.3 8.7 0.00 0.06 0.06 84 1014.6
20260905213400 80 40 3.5 8.7 0.00 0.06 0.06 84 1014.5
20260905213229 80 67 3.5 8.7 0.00 0.06 0.06 84 1014.4
20260905213151 80 57 3.5 11.3 0.00 0.06 0.06 84 1014.4
20260905213023 80 30 4.3 11.3 0.00 0.06 0.06 84 1014.4
20260905212935 80 92 4.3 11.3 0.00 0.06 0.06 83 1014.4
20260905212825 80 79 6.1 11.3 0.00 0.06 0.06 83 1014.4
20260905212737 80 84 5.2 11.3 0.00 0.06 0.06 83 1014.4
20260905212629 80 63 3.5 11.3 0.00 0.06 0.06 83 1014.4
20260905212526 80 57 4.3 11.3 0.00 0.06 0.06 82 1014.4
20260905212438 80 36 6.1 11.3 0.00 0.06 0.06 82 1014.5
20260905212330 80 73 6.1 11.3 0.00 0.06 0.06 82 1014.4
20260905212243 81 82 4.3 11.3 0.00 0.06 0.06 83 1014.4
20260905212155 81 78 5.2 11.3 0.00 0.06 0.06 82 1014.3
20260905212026 81 42 5.2 11.3 0.00 0.06 0.06 82 1014.4
20260905211939 81 24 6.1 11.3 0.00 0.06 0.06 82 1014.3
20260905211832 81 33 6.1 11.3 0.00 0.06 0.06 83 1014.3
20260905211744 81 43 6.1 11.3 0.00 0.06 0.06 82 1014.3
20260905211720 81 360 6.1 11.3 0.00 0.06 0.06 82 1014.3
20260905211530 81 49 7.0 11.3 0.00 0.06 0.06 82 1014.4
20260905211442 81 62 7.8 11.3 0.00 0.06 0.06 82 1014.4
20260905211334 81 33 7.0 11.3 0.00 0.06 0.06 82 1014.4
20260905211226 81 33 5.2 9.6 0.00 0.06 0.06 83 1014.4
20260905211139 80 41 6.1 9.6 0.00 0.06 0.06 83 1014.5
20260905211031 80 28 5.2 8.7 0.00 0.06 0.06 83 1014.3
20260905210922 80 5 5.2 8.7 0.00 0.06 0.06 84 1014.5
20260905210835 80 333 4.3 7.8 0.00 0.06 0.06 84 1014.4
20260905210731 80 15 2.6 7.0 0.00 0.06 0.06 84 1014.4
20260905210623 80 5 4.3 7.0 0.00 0.06 0.06 85 1014.4
20260905210535 80 22 4.3 7.0 0.00 0.06 0.06 84 1014.4
20260905210426 80 27 4.3 6.1 0.00 0.06 0.06 84 1014.4
20260905210338 80 32 3.5 6.1 0.00 0.06 0.06 84 1014.4
20260905210229 80 47 3.5 6.1 0.00 0.06 0.06 84 1014.4
20260905210151 80 37 4.3 6.1 0.00 0.06 0.06 84 1014.4
20260905210043 80 23 4.3 6.1 0.00 0.06 0.06 83 1014.4
20260905205933 80 13 4.3 9.6 0.00 0.06 0.06 83 1014.3
20260905205829 80 19 4.3 9.6 0.00 0.06 0.06 83 1014.3
20260905205741 80 33 4.3 9.6 0.00 0.06 0.06 83 1014.3
20260905205653 80 52 4.3 9.6 0.00 0.06 0.06 83 1014.4
20260905205544 80 13 3.5 9.6 0.00 0.06 0.06 83 1014.4
20260905205435 80 35 3.5 9.6 0.00 0.06 0.06 83 1014.4
20260905205348 80 5 3.5 9.6 0.00 0.06 0.06 82 1014.4
20260905205300 80 348 4.3 9.6 0.00 0.06 0.06 82 1014.4
20260905205132 80 12 5.2 9.6 0.00 0.06 0.06 82 1014.3
20260905205044 81 40 4.3 9.6 0.00 0.06 0.06 82 1014.4
20260905204958 81 57 4.3 9.6 0.00 0.06 0.06 82 1014.3
20260905204832 81 51 6.1 9.6 0.00 0.06 0.06 82 1014.4
20260905204722 81 30 6.1 10.4 0.00 0.06 0.06 82 1014.4
20260905204644 81 38 6.1 10.4 0.00 0.06 0.06 82 1014.4
20260905204536 81 15 7.0 10.4 0.00 0.06 0.06 81 1014.4
20260905204428 81 48 7.0 10.4 0.00 0.06 0.06 81 1014.4
20260905204340 81 51 7.0 10.4 0.00 0.06 0.06 81 1014.4
20260905204230 81 39 6.1 10.4 0.00 0.06 0.06 81 1014.4
20260905204141 82 10 6.1 10.4 0.00 0.06 0.06 81 1014.3
20260905204053 82 69 7.0 10.4 0.00 0.06 0.06 80 1014.3
20260905203928 82 23 7.0 10.4 0.00 0.06 0.06 80 1014.2
20260905203841 82 42 5.2 10.4 0.00 0.06 0.06 81 1014.4
20260905203753 82 42 4.3 7.8 0.00 0.06 0.06 82 1014.3
20260905203644 81 16 3.5 8.7 0.00 0.06 0.06 81 1014.4
20260905203536 81 56 3.5 8.7 0.00 0.06 0.06 80 1014.3
20260905203428 81 331 4.3 8.7 0.00 0.06 0.06 80 1014.3
20260905203341 81 351 4.3 8.7 0.00 0.06 0.06 80 1014.3
20260905203253 81 342 2.6 8.7 0.00 0.06 0.06 82 1014.3
20260905203214 81 79 2.6 8.7 0.00 0.06 0.06 81 1014.3
20260905203044 81 17 3.5 8.7 0.00 0.06 0.06 80 1014.4
20260905202957 81 64 4.3 8.7 0.00 0.06 0.06 80 1014.3
20260905202833 81 70 4.3 8.7 0.00 0.06 0.06 80 1014.3
20260905202746 81 9 4.3 8.7 0.00 0.06 0.06 80 1014.4
20260905202658 81 61 5.2 8.7 0.00 0.06 0.06 80 1014.4
20260905202549 81 36 6.1 8.7 0.00 0.06 0.06 80 1014.4
20260905202500 81 66 6.1 8.7 0.00 0.06 0.06 80 1014.5
20260905202332 81 22 4.3 8.7 0.00 0.06 0.06 81 1014.5
20260905202244 81 5 4.3 7.8 0.00 0.06 0.06 81 1014.4
20260905202136 81 41 3.5 7.8 0.00 0.06 0.06 81 1014.4
20260905202028 81 32 4.3 7.8 0.00 0.06 0.06 81 1014.5
20260905201920 81 24 3.5 8.7 0.00 0.06 0.06 81 1014.5
20260905201835 81 31 4.3 8.7 0.00 0.06 0.06 81 1014.5
20260905201748 81 26 4.3 9.6 0.00 0.06 0.06 80 1014.5
20260905201649 81 32 3.5 9.6 0.00 0.06 0.06 80 1014.6
20260905201541 81 355 3.5 9.6 0.00 0.06 0.06 80 1014.5
20260905201453 81 38 3.5 9.6 0.00 0.06 0.06 79 1014.6
20260905201323 81 24 4.3 9.6 0.00 0.06 0.06 79 1014.6
20260905201235 81 59 5.2 9.6 0.00 0.06 0.06 79 1014.6
20260905201148 81 30 6.1 9.6 0.00 0.06 0.06 78 1014.5
20260905201059 81 38 6.1 9.6 0.00 0.06 0.06 79 1014.6
20260905200930 81 81 5.2 9.6 0.00 0.06 0.06 79 1014.6
20260905200842 82 36 5.2 8.7 0.00 0.06 0.06 79 1014.6
20260905200737 82 59 4.3 8.7 0.00 0.06 0.06 80 1014.6
20260905200629 82 54 4.3 8.7 0.00 0.06 0.06 79 1014.6
20260905200522 82 67 6.1 8.7 0.00 0.06 0.06 79 1014.6
20260905200433 82 46 6.1 8.7 0.00 0.06 0.06 79 1014.7
20260905200346 82 38 6.1 8.7 0.00 0.06 0.06 80 1014.8
20260905200257 82 66 4.3 8.7 0.00 0.06 0.06 81 1014.7
20260905200159 82 355 3.5 8.7 0.00 0.06 0.06 81 1014.7
20260905200031 82 89 4.3 10.4 0.00 0.06 0.06 80 1014.8
20260905195943 82 45 5.2 12.2 0.00 0.06 0.06 79 1014.8
20260905195855 82 31 5.2 12.2 0.00 0.06 0.06 80 1014.8
20260905195620 82 91 3.5 12.2 0.00 0.06 0.06 81 1014.8
20260905195532 82 85 3.5 12.2 0.00 0.06 0.06 80 1014.7
20260905195423 82 68 5.2 12.2 0.00 0.06 0.06 81 1014.8
20260905195334 82 67 6.1 12.2 0.00 0.06 0.06 80 1014.7
20260905195226 82 65 8.7 12.2 0.00 0.06 0.06 80 1014.8
20260905195137 82 32 7.8 12.2 0.00 0.06 0.06 80 1014.8
20260905195029 82 20 5.2 11.3 0.00 0.06 0.06 79 1014.7
20260905194945 82 49 3.5 7.8 0.00 0.06 0.06 79 1014.7
20260905194837 82 55 3.5 7.8 0.00 0.06 0.06 79 1014.7
20260905194759 82 80 3.5 7.8 0.00 0.06 0.06 80 1014.7
20260905194640 82 35 3.5 10.4 0.00 0.06 0.06 79 1014.8
20260905194531 82 57 4.3 11.3 0.00 0.06 0.06 79 1014.7
20260905194423 82 78 3.5 11.3 0.00 0.06 0.06 79 1014.7
20260905194335 82 42 3.5 11.3 0.00 0.06 0.06 80 1014.7
20260905194228 82 42 4.3 11.3 0.00 0.06 0.06 80 1014.7
20260905194141 82 45 4.3 11.3 0.00 0.06 0.06 80 1014.7
20260905194054 82 61 5.2 11.3 0.00 0.06 0.06 80 1014.7
20260905193929 82 30 6.1 11.3 0.00 0.06 0.06 79 1014.7
20260905193821 82 68 7.0 11.3 0.00 0.06 0.06 80 1014.7
20260905193732 82 9 6.1 11.3 0.00 0.06 0.06 80 1014.7
20260905193625 82 59 3.5 7.8 0.00 0.06 0.06 80 1014.7
20260905193537 82 56 3.5 8.7 0.00 0.06 0.06 80 1014.7
20260905193429 82 65 3.5 9.6 0.00 0.06 0.06 81 1014.7
20260905193340 82 59 3.5 9.6 0.00 0.06 0.06 81 1014.8
20260905193230 82 30 3.5 9.6 0.00 0.06 0.06 80 1014.7
20260905193153 82 22 3.5 9.6 0.00 0.06 0.06 80 1014.7
20260905193028 82 17 5.2 9.6 0.00 0.06 0.06 79 1014.8
20260905192920 82 28 6.1 9.6 0.00 0.06 0.06 79 1014.7
20260905192832 82 5 6.1 9.6 0.00 0.06 0.06 79 1014.7
20260905192725 82 22 7.0 9.6 0.00 0.06 0.06 80 1014.8
20260905192637 82 9 7.0 9.6 0.00 0.06 0.06 80 1014.7
20260905192529 82 61 5.2 9.6 0.00 0.06 0.06 81 1014.8
20260905192421 82 38 2.6 8.7 0.00 0.06 0.06 81 1014.7
20260905192333 82 78 3.5 8.7 0.00 0.06 0.06 80 1014.8
20260905192230 82 63 2.6 8.7 0.00 0.06 0.06 81 1014.8
20260905192142 82 77 3.5 8.7 0.00 0.06 0.06 80 1014.8
20260905192055 82 52 4.3 9.6 0.00 0.06 0.06 79 1014.8
20260905191926 82 28 4.3 9.6 0.00 0.06 0.06 79 1014.9
20260905191838 82 21 5.2 9.6 0.00 0.06 0.06 78 1014.8
20260905191730 83 355 4.3 9.6 0.00 0.06 0.06 79 1014.9
20260905191653 83 16 5.2 9.6 0.00 0.06 0.06 79 1014.9
20260905191524 83 347 4.3 9.6 0.00 0.06 0.06 79 1014.8
20260905191437 83 46 4.3 9.6 0.00 0.06 0.06 79 1014.7
20260905191331 83 42 5.2 9.6 0.00 0.06 0.06 79 1014.7
20260905191221 83 5 5.2 9.6 0.00 0.06 0.06 79 1014.6
20260905191134 83 29 4.3 9.6 0.00 0.06 0.06 80 1014.6
20260905191026 83 120 2.6 8.7 0.00 0.06 0.06 81 1014.6
20260905190938 83 63 2.6 9.6 0.00 0.06 0.06 81 1014.6
20260905190850 82 66 1.7 9.6 0.00 0.06 0.06 81 1014.6
20260905190742 82 40 2.6 9.6 0.00 0.06 0.06 82 1014.7
20260905190653 82 54 3.5 9.6 0.00 0.06 0.06 81 1014.7
20260905190606 82 24 4.3 9.6 0.00 0.06 0.06 81 1014.7
20260905190456 82 25 5.2 9.6 0.00 0.06 0.06 81 1014.6
20260905190333 82 14 6.1 9.6 0.00 0.06 0.06 80 1014.7
20260905190223 82 30 7.0 9.6 0.00 0.06 0.06 81 1014.7
20260905190145 82 15 6.1 9.6 0.00 0.06 0.06 82 1014.6
20260905190037 82 15 4.3 8.7 0.00 0.06 0.06 82 1014.7
20260905185948 82 342 3.5 7.8 0.00 0.06 0.06 82 1014.8
20260905185839 81 351 3.5 7.8 0.00 0.06 0.06 82 1014.8
20260905185731 81 22 3.5 7.8 0.00 0.06 0.06 81 1014.7
20260905185623 81 18 2.6 7.8 0.00 0.06 0.06 81 1014.8
20260905185535 81 5 2.6 7.8 0.00 0.06 0.06 81 1014.8
20260905185430 81 24 2.6 7.8 0.00 0.06 0.06 81 1014.8
20260905185321 81 11 4.3 7.8 0.00 0.06 0.06 81 1014.8
20260905185234 81 46 4.3 7.8 0.00 0.06 0.06 81 1014.8
20260905185127 82 41 4.3 8.7 0.00 0.06 0.06 80 1014.8
20260905185037 82 28 4.3 8.7 0.00 0.06 0.06 80 1014.8
20260905184930 82 59 4.3 8.7 0.00 0.06 0.06 80 1014.9
20260905184821 82 25 4.3 8.7 0.00 0.06 0.06 81 1014.8
20260905184733 82 10 4.3 8.7 0.00 0.06 0.06 80 1014.9
20260905184655 82 355 4.3 8.7 0.00 0.06 0.06 80 1014.9
20260905184530 82 345 4.3 8.7 0.00 0.06 0.06 80 1014.9
20260905184422 82 34 5.2 8.7 0.00 0.06 0.06 80 1014.9
20260905184334 82 5 5.2 8.7 0.00 0.06 0.06 80 1014.9
20260905184226 82 17 5.2 8.7 0.00 0.06 0.06 80 1014.9
20260905184137 82 53 4.3 8.7 0.00 0.06 0.06 80 1014.9
20260905184030 82 47 2.6 7.0 0.00 0.06 0.06 81 1014.8
20260905183923 82 76 2.6 7.8 0.00 0.06 0.06 81 1014.8
20260905183835 82 98 2.6 7.8 0.00 0.06 0.06 82 1014.8
20260905183732 82 81 4.3 7.8 0.00 0.06 0.06 81 1014.8
20260905183623 82 82 4.3 7.8 0.00 0.06 0.06 80 1014.8
20260905183534 82 69 4.3 7.8 0.00 0.06 0.06 80 1014.8
20260905183427 82 96 4.3 7.8 0.00 0.06 0.06 80 1014.8
20260905183340 82 100 4.3 7.8 0.00 0.06 0.06 81 1014.8
20260905183230 82 94 3.5 7.8 0.00 0.06 0.06 80 1014.8
20260905183152 82 49 4.3 7.8 0.00 0.06 0.06 80 1014.8
20260905183023 82 28 4.3 7.8 0.00 0.06 0.06 80 1014.8
20260905182931 82 340 3.5 7.8 0.00 0.06 0.06 80 1014.9
20260905182828 82 57 3.5 7.8 0.00 0.06 0.06 81 1014.8
20260905182741 82 64 5.2 7.8 0.00 0.06 0.06 81 1014.8
20260905182631 82 342 4.3 7.8 0.00 0.06 0.06 81 1014.8
20260905182523 82 355 2.6 7.0 0.00 0.06 0.06 80 1014.8
20260905182435 82 335 1.7 5.2 0.00 0.06 0.06 79 1014.7
20260905182327 82 335 2.6 7.0 0.00 0.06 0.06 79 1014.8
20260905182220 82 344 2.6 7.0 0.00 0.06 0.06 80 1014.8
20260905182133 82 355 2.6 7.0 0.00 0.06 0.06 80 1014.8
20260905182029 82 347 3.5 7.0 0.00 0.06 0.06 79 1014.8
20260905181921 82 342 4.3 7.0 0.00 0.06 0.06 79 1014.9
20260905181834 82 360 3.5 7.0 0.00 0.06 0.06 79 1014.8
20260905181726 82 11 3.5 7.0 0.00 0.06 0.06 80 1014.8
20260905181647 82 59 3.5 7.0 0.00 0.06 0.06 80 1014.8
20260905181539 82 55 4.3 7.0 0.00 0.06 0.06 80 1014.8
20260905181431 82 341 3.5 7.0 0.00 0.06 0.06 80 1014.8
20260905181323 82 28 2.6 7.0 0.00 0.06 0.06 79 1014.8
20260905181235 82 17 3.5 7.0 0.00 0.06 0.06 79 1014.8
20260905181131 82 80 3.5 7.0 0.00 0.06 0.06 79 1014.8
20260905181024 82 57 3.5 7.0 0.00 0.06 0.06 79 1014.7
20260905180937 83 13 3.5 7.0 0.00 0.06 0.06 79 1014.8
20260905180828 82 48 3.5 7.0 0.00 0.06 0.06 79 1014.8
20260905180721 82 69 3.5 7.0 0.00 0.06 0.06 80 1014.8
20260905180632 82 90 3.5 7.0 0.00 0.06 0.06 79 1014.8
20260905180524 82 46 4.3 7.0 0.00 0.06 0.06 80 1014.9
20260905180420 82 22 1.7 6.1 0.00 0.06 0.06 80 1014.9
20260905180333 82 54 0.9 5.2 0.00 0.06 0.06 81 1014.9
20260905180243 82 54 1.7 7.0 0.00 0.08 0.06 80 1014.8
20260905180037 82 54 1.7 7.0 0.00 0.08 0.06 80 1014.9
20260905175928 82 9 1.7 7.0 0.00 0.08 0.06 79 1014.9
20260905175838 82 9 2.6 7.0 0.00 0.08 0.06 79 1014.9
20260905175730 82 348 3.5 7.0 0.00 0.08 0.06 79 1014.9
20260905175622 82 22 4.3 7.0 0.00 0.08 0.06 79 1014.9
20260905175519 82 5 4.3 7.0 0.00 0.08 0.06 78 1014.9
20260905175431 82 11 4.3 7.0 0.00 0.08 0.06 80 1014.8
20260905175322 82 355 4.3 7.0 0.00 0.08 0.06 79 1014.8
20260905175235 82 31 2.6 7.0 0.00 0.08 0.06 79 1014.8
20260905175126 82 360 0.9 4.3 0.00 0.08 0.06 79 1014.8
20260905175019 82 57 2.6 4.3 0.00 0.08 0.06 79 1014.8
20260905174931 82 57 2.6 4.3 0.00 0.08 0.06 79 1014.8
20260905174824 82 360 3.5 4.3 0.00 0.08 0.06 79 1014.8
20260905174735 82 46 2.6 4.3 0.00 0.08 0.06 79 1014.7
20260905174702 82 34 2.6 4.3 0.00 0.08 0.06 79 1014.8
20260905174531 82 5 1.7 4.3 0.00 0.08 0.06 79 1014.8
20260905174424 82 66 2.6 4.3 0.00 0.08 0.06 78 1014.8
20260905174337 82 46 3.5 4.3 0.00 0.08 0.06 78 1014.8
20260905174249 82 88 3.5 4.3 0.00 0.08 0.06 78 1014.8
20260905174138 82 97 2.6 5.2 0.00 0.08 0.06 80 1014.8
20260905174030 82 84 1.7 3.5 0.00 0.08 0.06 81 1014.8
20260905173942 82 65 0.9 3.5 0.00 0.08 0.06 81 1014.9
20260905173854 82 65 1.7 7.8 0.00 0.08 0.06 80 1014.9
20260905173725 82 65 2.6 7.8 0.00 0.08 0.06 79 1015.0
20260905173621 82 36 1.7 7.8 0.00 0.08 0.06 80 1014.9
20260905173533 82 28 1.7 7.8 0.00 0.08 0.06 80 1014.9
20260905173446 82 53 2.6 7.8 0.00 0.08 0.06 80 1014.9
20260905173359 81 56 1.7 7.8 0.00 0.08 0.06 79 1015.0
20260905173228 82 11 1.7 7.8 0.00 0.08 0.06 79 1015.0
20260905173149 82 11 2.6 7.8 0.00 0.08 0.06 79 1015.0
20260905173041 82 40 3.5 7.8 0.00 0.08 0.06 79 1015.0
20260905172954 82 33 3.5 7.8 0.00 0.08 0.06 79 1015.0
20260905172844 82 61 3.5 7.0 0.00 0.08 0.06 79 1014.9
20260905172756 82 70 2.6 6.1 0.00 0.08 0.06 79 1014.9
20260905172631 82 306 2.6 5.2 0.00 0.08 0.06 79 1014.9
20260905172523 82 346 1.7 5.2 0.00 0.08 0.06 79 1014.9
20260905172435 82 360 2.6 5.2 0.00 0.08 0.06 79 1015.0
20260905172347 82 36 1.7 5.2 0.00 0.08 0.06 80 1015.0
20260905172300 82 306 1.7 5.2 0.00 0.08 0.06 80 1015.0
20260905172213 82 92 2.6 5.2 0.00 0.08 0.06 79 1015.0
20260905172101 82 64 2.6 5.2 0.00 0.08 0.06 80 1015.1
20260905171952 82 84 1.7 5.2 0.00 0.08 0.06 80 1015.1
20260905171842 82 54 0.9 6.1 0.00 0.08 0.06 79 1015.0
20260905171732 82 55 0.9 6.1 0.00 0.08 0.06 80 1015.1
20260905171655 82 55 1.7 6.1 0.00 0.08 0.06 80 1015.1
20260905171531 82 55 3.5 6.1 0.00 0.08 0.06 80 1015.1
20260905171423 82 41 3.5 6.1 0.00 0.08 0.06 80 1015.0
20260905171336 82 35 3.5 6.1 0.00 0.08 0.06 81 1015.0
20260905171227 82 83 1.7 6.1 0.00 0.08 0.06 84 1015.0
20260905171119 82 105 1.7 6.1 0.00 0.08 0.06 83 1015.1
20260905171031 81 105 1.7 6.1 0.00 0.08 0.06 81 1015.0
20260905170923 81 67 1.7 5.2 0.00 0.08 0.06 82 1015.0
20260905170834 81 67 1.7 5.2 0.00 0.08 0.06 82 1015.0
20260905170747 81 57 1.7 5.2 0.00 0.08 0.06 83 1015.0
20260905170703 81 119 3.5 5.2 0.00 0.08 0.06 81 1015.1
20260905170554 81 105 3.5 6.1 0.00 0.08 0.06 82 1015.1
20260905170441 81 105 2.6 4.3 0.00 0.08 0.06 82 1015.1
20260905170333 81 96 1.7 4.3 0.00 0.08 0.06 83 1015.2
20260905170222 81 67 1.7 4.3 0.00 0.27 0.06 83 1015.2
20260905170144 81 89 1.7 4.3 0.00 0.27 0.06 82 1015.2
20260905170035 81 69 2.6 4.3 0.00 0.27 0.06 83 1015.3
20260905165948 81 60 2.6 4.3 0.00 0.27 0.06 83 1015.2
20260905165900 81 57 1.7 4.3 0.00 0.27 0.06 82 1015.2
20260905165751 81 344 0.9 4.3 0.00 0.27 0.06 82 1015.2
20260905165642 81 292 1.7 4.3 0.00 0.27 0.06 82 1015.2
20260905165533 80 292 1.7 5.2 0.00 0.27 0.06 82 1015.3
20260905165429 80 292 1.7 5.2 0.00 0.27 0.06 81 1015.2
20260905165321 80 42 0.9 5.2 0.00 0.27 0.06 82 1015.3
20260905165232 80 42 1.7 5.2 0.00 0.27 0.06 82 1015.3
20260905165124 80 42 2.6 5.2 0.00 0.27 0.06 82 1015.3
20260905165036 80 42 3.5 5.2 0.00 0.27 0.06 83 1015.2
20260905164927 80 48 3.5 5.2 0.00 0.27 0.06 83 1015.3
20260905164819 80 37 2.6 5.2 0.00 0.27 0.06 84 1015.2
20260905164731 80 61 1.7 5.2 0.00 0.27 0.06 85 1015.3
20260905164657 80 35 1.7 4.3 0.00 0.27 0.06 84 1015.3
20260905164528 80 302 1.7 4.3 0.00 0.27 0.06 84 1015.3
20260905164441 80 302 1.7 4.3 0.00 0.27 0.06 84 1015.2
20260905164353 79 302 1.7 4.3 0.00 0.27 0.06 84 1015.2
20260905164244 79 337 2.6 4.3 0.00 0.27 0.06 85 1015.2
20260905164136 79 24 2.6 4.3 0.00 0.27 0.06 85 1015.2
20260905164029 79 5 2.6 4.3 0.00 0.27 0.06 84 1015.2
20260905163941 79 340 3.5 4.3 0.00 0.27 0.06 85 1015.2
20260905163832 79 17 1.7 4.3 0.00 0.27 0.06 85 1015.3
20260905163744 79 295 1.7 5.2 0.00 0.27 0.06 84 1015.3
20260905163634 79 295 2.6 5.2 0.00 0.27 0.06 84 1015.2
20260905163530 79 304 2.6 5.2 0.00 0.27 0.06 84 1015.3
20260905163442 79 286 2.6 5.2 0.00 0.27 0.06 84 1015.2
20260905163354 79 324 2.6 5.2 0.00 0.27 0.06 84 1015.2
20260905163306 79 302 2.6 5.2 0.00 0.27 0.06 84 1015.2
20260905163206 79 10 3.5 5.2 0.00 0.27 0.06 84 1015.2
20260905163057 80 333 4.3 5.2 0.00 0.27 0.06 84 1015.2
20260905162948 80 337 4.3 5.2 0.00 0.27 0.06 84 1015.3
20260905162839 80 340 3.5 5.2 0.00 0.27 0.06 85 1015.3
20260905162730 80 50 2.6 5.2 0.00 0.27 0.06 85 1015.3
20260905162622 80 351 2.6 5.2 0.00 0.27 0.06 85 1015.3
20260905162538 79 9 1.7 5.2 0.00 0.27 0.06 85 1015.2
20260905162431 79 117 1.7 5.2 0.00 0.27 0.06 85 1015.3
20260905162342 79 117 0.9 5.2 0.00 0.27 0.06 85 1015.2
20260905162254 79 49 0.9 5.2 0.00 0.27 0.06 85 1015.3
20260905162146 79 55 2.6 5.2 0.00 0.27 0.06 84 1015.3
20260905162038 79 62 3.5 5.2 0.00 0.27 0.06 84 1015.2
20260905161931 79 68 2.6 5.2 0.00 0.27 0.06 83 1015.3
20260905161843 79 92 1.7 3.5 0.00 0.27 0.06 83 1015.3
20260905161754 79 61 1.7 3.5 0.00 0.27 0.06 84 1015.3
20260905161656 79 61 1.7 3.5 0.00 0.27 0.06 84 1015.3
20260905161547 79 360 1.7 3.5 0.00 0.27 0.06 84 1015.3
20260905161421 79 360 1.7 4.3 0.00 0.27 0.06 83 1015.3
20260905161334 79 274 1.7 4.3 0.00 0.27 0.06 83 1015.2
20260905161226 79 274 1.7 4.3 0.00 0.27 0.06 83 1015.2
20260905161138 79 344 1.7 4.3 0.00 0.27 0.06 83 1015.1
20260905161031 79 305 1.7 4.3 0.00 0.27 0.06 84 1015.1
20260905160922 79 325 1.7 4.3 0.00 0.27 0.06 84 1015.1
20260905160833 79 313 1.7 4.3 0.00 0.27 0.06 84 1015.1
20260905160725 79 9 2.6 4.3 0.00 0.27 0.06 84 1015.2
20260905160621 79 5 2.6 4.3 0.00 0.27 0.06 84 1015.1
20260905160532 79 47 2.6 4.3 0.00 0.27 0.06 85 1015.1
20260905160424 79 49 1.7 4.3 0.00 0.27 0.06 85 1015.1
20260905160337 79 67 1.7 4.3 0.00 0.27 0.06 86 1015.1
20260905160227 79 67 2.6 4.3 0.00 0.27 0.06 86 1015.1
20260905160148 79 67 2.6 4.3 0.00 0.27 0.06 86 1015.1
20260905160021 79 42 1.7 4.3 0.00 0.27 0.06 86 1015.2
20260905155933 79 30 0.9 4.3 0.00 0.27 0.06 86 1015.2
20260905155827 79 53 2.6 4.3 0.00 0.27 0.06 86 1015.2
20260905155720 79 53 2.6 4.3 0.00 0.27 0.06 87 1015.3
20260905155632 79 5 0.9 4.3 0.00 0.27 0.06 87 1015.3
20260905155543 79 73 0.9 5.2 0.00 0.27 0.06 87 1015.3
20260905155455 79 80 0.9 5.2 0.00 0.27 0.06 87 1015.3
20260905155346 79 69 0.9 5.2 0.00 0.27 0.06 88 1015.3
20260905155257 78 53 0.9 5.2 0.00 0.27 0.06 87 1015.3
20260905155147 78 53 1.7 5.2 0.00 0.27 0.06 88 1015.3
20260905155019 78 53 3.5 5.2 0.00 0.27 0.06 88 1015.3
20260905154931 78 34 3.5 5.2 0.00 0.27 0.06 88 1015.2
20260905154827 78 34 3.5 5.2 0.00 0.27 0.06 88 1015.3
20260905154738 78 348 2.6 5.2 0.00 0.27 0.06 88 1015.2
20260905154659 78 24 2.6 5.2 0.00 0.27 0.06 88 1015.2
20260905154531 78 12 2.6 5.2 0.00 0.27 0.06 88 1015.1
20260905154444 78 355 1.7 5.2 0.00 0.27 0.06 88 1015.2
20260905154356 78 17 2.6 5.2 0.00 0.27 0.06 88 1015.2
20260905154247 78 17 2.6 5.2 0.00 0.27 0.06 89 1015.2
20260905154137 78 75 2.6 5.2 0.00 0.27 0.06 89 1015.2
20260905154028 78 68 2.6 4.3 0.00 0.27 0.06 90 1015.2
20260905153940 78 83 2.6 3.5 0.00 0.27 0.06 89 1015.2
20260905153853 78 28 1.7 3.5 0.00 0.27 0.06 89 1015.2
20260905153809 78 118 0.9 2.6 0.00 0.27 0.06 89 1015.3
20260905153700 78 118 0.0 3.5 0.00 0.27 0.06 89 1015.2
20260905153531 78 118 0.0 5.2 0.00 0.27 0.06 89 1015.3
20260905153424 78 118 0.9 5.2 0.00 0.27 0.06 89 1015.3
20260905153336 78 118 1.7 7.0 0.00 0.27 0.06 89 1015.3
20260905153246 78 118 1.7 7.0 0.00 0.27 0.06 89 1015.3
20260905153147 78 118 0.9 7.0 0.00 0.27 0.06 89 1015.2
20260905153039 78 118 0.0 7.0 0.00 0.27 0.06 89 1015.2
20260905152952 78 118 1.7 7.0 0.00 0.27 0.06 89 1015.2
20260905152822 78 118 3.5 7.0 0.00 0.27 0.06 90 1015.2
20260905152719 78 98 4.3 7.0 0.00 0.27 0.06 90 1015.1
20260905152630 78 96 4.3 7.0 0.00 0.27 0.06 90 1015.1
20260905152522 78 116 1.7 7.0 0.00 0.27 0.06 91 1015.1
20260905152434 78 5 0.9 7.0 0.00 0.27 0.06 91 1015.1
20260905152326 77 67 0.9 7.0 0.00 0.27 0.06 91 1015.1
20260905152238 77 67 2.6 7.0 0.00 0.27 0.06 91 1015.1
20260905152150 77 73 2.6 7.0 0.00 0.27 0.06 91 1015.2
20260905152022 77 124 1.7 5.2 0.00 0.27 0.06 92 1015.1
20260905151919 77 146 1.7 5.2 0.00 0.27 0.06 91 1015.1
20260905151831 77 146 2.6 5.2 0.00 0.27 0.06 91 1015.1
20260905151742 77 146 2.6 5.2 0.00 0.27 0.06 92 1015.0
20260905151704 77 146 2.6 5.2 0.00 0.27 0.06 91 1015.0
20260905151556 77 92 1.7 5.2 0.00 0.27 0.06 91 1015.0
20260905151447 77 92 2.6 5.2 0.00 0.27 0.06 92 1014.9
20260905151359 77 92 3.5 5.2 0.00 0.27 0.06 91 1015.0
20260905151230 77 89 3.5 5.2 0.00 0.27 0.06 91 1014.9
20260905151123 77 96 3.5 5.2 0.00 0.27 0.06 92 1015.0
20260905151036 77 87 2.6 5.2 0.00 0.27 0.06 92 1015.0
20260905150932 77 70 1.7 3.5 0.00 0.27 0.06 93 1015.0
20260905150845 76 87 1.7 3.5 0.00 0.27 0.06 93 1015.1
20260905150757 76 87 2.6 3.5 0.00 0.27 0.06 93 1015.1
20260905150710 76 97 2.6 3.5 0.00 0.27 0.06 93 1015.0
20260905150600 76 106 1.7 3.5 0.00 0.27 0.06 94 1015.0
20260905150432 76 121 0.9 3.5 0.00 0.27 0.06 94 1015.0
20260905150323 76 121 0.9 3.5 0.00 0.27 0.06 93 1015.0
20260905150234 76 121 1.7 7.0 0.00 0.27 0.06 93 1015.0
20260905150157 75 121 1.7 7.0 0.00 0.27 0.06 93 1015.0
20260905150028 75 121 0.9 7.0 0.00 0.27 0.06 93 1015.0
20260905145925 75 116 0.0 7.0 0.00 0.27 0.06 93 1015.0
20260905145835 75 128 0.0 7.0 0.00 0.27 0.06 93 1015.0
20260905145747 75 113 0.0 7.0 0.00 0.27 0.06 93 1015.0
20260905145637 75 113 0.0 7.0 0.00 0.27 0.06 92 1015.0
20260905145529 75 153 0.9 7.0 0.00 0.27 0.06 92 1015.0
20260905145441 75 153 2.6 7.0 0.00 0.27 0.06 93 1015.0
20260905145332 75 152 3.5 7.0 0.00 0.27 0.06 93 1015.0
20260905145225 75 109 3.5 3.5 0.00 0.27 0.06 93 1015.1
20260905145137 75 109 2.6 3.5 0.00 0.27 0.06 93 1015.0
20260905145033 75 109 1.7 3.5 0.00 0.27 0.06 93 1015.0
20260905144925 75 106 0.9 2.6 0.00 0.27 0.06 94 1015.0
20260905144838 75 139 1.7 4.3 0.00 0.27 0.06 94 1015.0
20260905144730 75 139 1.7 4.3 0.00 0.27 0.06 94 1014.9
20260905144652 75 139 1.7 4.3 0.00 0.27 0.06 94 1014.9
20260905144523 75 139 0.9 4.3 0.00 0.27 0.06 94 1014.9
20260905144435 75 139 0.9 4.3 0.00 0.27 0.06 94 1014.9
20260905144326 75 139 0.9 4.3 0.00 0.27 0.06 94 1014.9
20260905144238 75 139 0.9 4.3 0.00 0.27 0.06 94 1014.9
20260905144153 75 139 2.6 4.3 0.00 0.27 0.06 94 1014.9
20260905144044 75 139 3.5 5.2 0.00 0.27 0.06 94 1014.9
20260905143936 75 119 2.6 5.2 0.00 0.27 0.06 94 1015.0
20260905143829 75 123 2.6 4.3 0.00 0.27 0.06 94 1015.0
20260905143722 75 106 1.7 3.5 0.00 0.27 0.06 94 1015.0
20260905143634 75 106 1.7 3.5 0.00 0.27 0.06 94 1015.0
20260905143526 75 106 2.6 3.5 0.00 0.27 0.06 94 1015.0
20260905143438 75 106 2.6 3.5 0.00 0.27 0.06 94 1015.1
20260905143330 75 106 1.7 3.5 0.00 0.27 0.06 94 1015.1
20260905143223 74 106 1.7 3.5 0.00 0.27 0.06 94 1015.1
20260905143145 74 106 1.7 6.1 0.00 0.27 0.06 94 1015.1
20260905143037 74 106 2.6 6.1 0.00 0.27 0.06 94 1015.0
20260905142946 74 106 1.7 6.1 0.00 0.27 0.06 95 1014.9
20260905142858 74 146 1.7 6.1 0.00 0.27 0.06 95 1015.0
20260905142729 74 146 1.7 6.1 0.00 0.27 0.06 95 1015.0
20260905142621 74 146 2.6 6.1 0.00 0.27 0.06 95 1015.0
20260905142534 74 146 2.6 6.1 0.00 0.27 0.06 95 1015.0
20260905142425 74 138 3.5 6.1 0.00 0.27 0.06 95 1015.0
20260905142336 74 138 3.5 6.1 0.00 0.27 0.06 95 1015.1
20260905142248 74 138 2.6 6.1 0.00 0.27 0.06 95 1015.1
20260905142143 74 125 3.5 6.1 0.00 0.27 0.06 95 1015.1
20260905142034 74 125 3.5 6.1 0.00 0.27 0.06 95 1015.1
20260905141927 74 125 3.5 6.1 0.00 0.27 0.06 95 1015.1
20260905141839 74 119 3.5 6.1 0.00 0.27 0.06 95 1015.1
20260905141740 74 100 2.6 6.1 0.00 0.27 0.06 95 1015.1
20260905141642 74 100 3.5 6.1 0.00 0.27 0.06 95 1015.0
20260905141534 74 100 3.5 6.1 0.00 0.27 0.06 96 1015.0
20260905141426 74 130 3.5 6.1 0.00 0.27 0.06 96 1015.0
20260905141339 74 109 3.5 6.1 0.00 0.27 0.06 96 1015.1
20260905141235 74 133 3.5 6.1 0.00 0.27 0.06 95 1015.0
20260905141127 74 124 0.9 5.2 0.00 0.27 0.06 97 1015.1
20260905141020 74 83 0.0 2.6 0.00 0.27 0.06 97 1015.0
20260905140932 74 83 0.0 2.6 0.00 0.27 0.06 97 1015.1
20260905140824 74 83 0.0 2.6 0.00 0.27 0.06 97 1015.1
20260905140737 74 83 0.0 2.6 0.00 0.27 0.06 97 1015.1
20260905140648 74 83 0.0 2.6 0.00 0.27 0.06 97 1015.1
20260905140520 73 83 0.0 3.5 0.00 0.27 0.06 96 1015.1
20260905140431 73 83 0.0 3.5 0.00 0.27 0.06 96 1015.1
20260905140348 73 83 0.9 3.5 0.00 0.27 0.06 96 1015.0
20260905140237 73 83 1.7 3.5 0.00 0.27 0.06 96 1015.0
20260905140159 73 83 1.7 3.5 0.00 0.27 0.06 96 1015.0
20260905140031 73 83 2.6 3.5 0.00 0.27 0.06 96 1015.1
20260905135923 73 83 1.7 3.5 0.00 0.27 0.06 96 1015.1
20260905135836 73 83 1.7 3.5 0.00 0.27 0.06 96 1015.1
20260905135729 73 83 1.7 3.5 0.00 0.27 0.06 96 1015.0
20260905135620 73 83 1.7 5.2 0.00 0.27 0.06 97 1015.1
20260905135531 73 53 0.9 6.1 0.00 0.27 0.06 97 1015.0
20260905135447 73 74 0.9 6.1 0.00 0.27 0.06 97 1015.0
20260905135359 73 74 1.7 6.1 0.00 0.27 0.06 97 1015.0
20260905135251 73 68 2.6 6.1 0.00 0.27 0.06 96 1015.0
20260905135122 73 104 2.6 6.1 0.00 0.27 0.06 96 1015.0
20260905135034 73 92 2.6 6.1 0.00 0.27 0.06 96 1015.0
20260905134946 73 67 3.5 6.1 0.00 0.27 0.06 96 1015.0
20260905134838 73 97 3.5 6.1 0.00 0.27 0.06 96 1014.9
20260905134750 73 92 3.5 6.1 0.00 0.27 0.06 96 1014.9
20260905134712 74 101 2.6 5.2 0.00 0.27 0.06 97 1014.9
20260905134544 74 65 2.6 4.3 0.00 0.27 0.06 97 1014.9
20260905134435 74 89 2.6 4.3 0.00 0.27 0.06 97 1014.9
20260905134347 74 87 2.6 4.3 0.00 0.27 0.06 97 1014.9
20260905134242 74 80 2.6 4.3 0.00 0.27 0.06 97 1014.9
20260905134133 74 76 2.6 4.3 0.00 0.27 0.06 97 1015.0
20260905134045 74 71 2.6 4.3 0.00 0.27 0.06 97 1014.9
20260905133957 74 86 3.5 4.3 0.00 0.27 0.06 97 1014.9
20260905133848 74 83 2.6 4.3 0.00 0.27 0.06 97 1014.9
20260905133800 74 67 2.6 4.3 0.00 0.27 0.06 97 1015.0
20260905133632 74 67 2.6 5.2 0.00 0.27 0.06 97 1015.0
20260905133545 74 84 2.6 5.2 0.00 0.27 0.06 97 1014.9
20260905133458 74 71 2.6 5.2 0.00 0.27 0.06 97 1014.9
20260905133411 73 69 2.6 4.3 0.00 0.27 0.06 97 1014.9
20260905133301 73 82 2.6 3.5 0.00 0.27 0.06 97 1014.9
20260905133140 74 105 2.6 3.5 0.00 0.27 0.06 97 1015.0
20260905133035 73 61 1.7 3.5 0.00 0.27 0.06 97 1015.0
20260905132927 73 65 1.7 3.5 0.00 0.27 0.06 97 1015.0
20260905132838 73 97 1.7 3.5 0.00 0.27 0.06 97 1014.9
20260905132730 73 97 2.6 3.5 0.00 0.27 0.06 97 1015.0
20260905132623 73 91 2.6 3.5 0.00 0.27 0.06 97 1014.9
20260905132535 73 74 1.7 3.5 0.00 0.27 0.06 98 1015.0
20260905132447 73 60 1.7 3.5 0.00 0.27 0.06 98 1014.9
20260905132338 73 93 1.7 4.3 0.00 0.27 0.06 98 1014.9
20260905132230 73 131 1.7 4.3 0.00 0.27 0.06 98 1015.0
20260905132126 73 131 1.7 4.3 0.00 0.27 0.06 98 1014.9
20260905132038 73 131 1.7 4.3 0.00 0.27 0.06 98 1014.9
20260905131930 73 131 2.6 4.3 0.00 0.27 0.06 98 1014.8
20260905131821 73 131 2.6 4.3 0.00 0.27 0.06 98 1014.8
20260905131734 73 131 2.6 4.3 0.00 0.27 0.06 98 1014.7
20260905131657 73 131 2.6 4.3 0.00 0.27 0.06 98 1014.7
20260905131528 73 131 2.6 4.3 0.00 0.27 0.06 98 1014.7
20260905131439 73 131 1.7 4.3 0.00 0.27 0.06 98 1014.7
20260905131332 73 131 1.7 4.3 0.00 0.27 0.06 98 1014.7
20260905131229 73 131 2.6 4.3 0.00 0.27 0.06 98 1014.8
20260905131141 73 131 1.7 4.3 0.00 0.27 0.06 99 1014.8
20260905131033 73 108 1.7 3.5 0.00 0.27 0.06 99 1014.8
20260905130924 73 108 1.7 3.5 0.00 0.27 0.06 99 1014.8
20260905130835 73 108 1.7 3.5 0.00 0.27 0.06 98 1014.8
20260905130727 73 91 2.6 3.5 0.00 0.27 0.06 98 1014.8
20260905130619 73 113 2.6 3.5 0.00 0.27 0.06 98 1014.7
20260905130532 73 113 2.6 3.5 0.00 0.27 0.06 98 1014.7
20260905130426 73 99 2.6 2.6 0.00 0.27 0.06 99 1014.7
20260905130340 73 119 1.7 2.6 0.00 0.27 0.06 99 1014.7
20260905130230 73 122 1.7 3.5 0.00 0.27 0.06 99 1014.7
20260905130151 73 122 1.7 3.5 0.00 0.27 0.06 99 1014.7
20260905130022 73 122 0.9 3.5 0.00 0.27 0.06 99 1014.6
20260905125934 72 122 0.0 3.5 0.00 0.27 0.06 98 1014.8
20260905125826 72 122 0.0 3.5 0.00 0.27 0.06 98 1014.7
20260905125739 72 122 0.0 3.5 0.00 0.27 0.06 98 1014.8
20260905125631 72 122 0.0 3.5 0.00 0.27 0.06 98 1014.7
20260905125527 72 122 1.7 3.5 0.00 0.27 0.06 98 1014.8
20260905125419 72 122 1.7 3.5 0.00 0.27 0.06 98 1014.7
20260905125332 72 100 1.7 3.5 0.00 0.27 0.06 98 1014.7
20260905125224 72 100 0.9 3.5 0.00 0.27 0.06 98 1014.8
20260905125138 72 100 0.0 3.5 0.00 0.27 0.06 98 1014.8
20260905125030 72 68 0.0 3.5 0.00 0.27 0.06 98 1014.8
20260905124921 72 57 0.0 3.5 0.00 0.27 0.06 98 1014.7
20260905124834 72 70 0.0 3.5 0.00 0.27 0.06 98 1014.7
20260905124727 72 48 0.0 4.3 0.00 0.27 0.06 98 1014.8
20260905124649 72 48 0.9 4.3 0.00 0.27 0.06 98 1014.8
20260905124520 72 49 1.7 4.3 0.00 0.27 0.06 98 1014.8
20260905124433 72 57 1.7 4.3 0.00 0.27 0.06 98 1014.9
20260905124346 72 51 0.9 4.3 0.00 0.27 0.06 98 1014.9
20260905124257 72 55 1.7 4.3 0.00 0.27 0.06 98 1014.8
20260905124128 72 57 2.6 4.3 0.00 0.27 0.06 98 1014.9
20260905124039 72 81 1.7 4.3 0.00 0.27 0.06 98 1014.9
20260905123951 72 71 0.9 4.3 0.00 0.27 0.06 98 1014.9
20260905123843 72 71 1.7 4.3 0.00 0.27 0.06 98 1014.9
20260905123756 72 71 2.6 4.3 0.00 0.27 0.06 98 1014.9
20260905123651 72 61 1.7 3.5 0.00 0.27 0.06 98 1014.9
20260905123603 72 88 1.7 6.1 0.00 0.27 0.06 98 1014.8
20260905123516 72 62 1.7 6.1 0.00 0.27 0.06 98 1014.9
20260905123428 72 76 1.7 6.1 0.00 0.27 0.06 98 1014.8
20260905123319 72 92 2.6 6.1 0.00 0.27 0.06 98 1014.8
20260905123158 72 96 1.7 6.1 0.00 0.27 0.06 98 1014.7
20260905123030 72 102 1.7 6.1 0.00 0.27 0.06 98 1014.7
20260905122923 72 105 3.5 6.1 0.00 0.27 0.06 98 1014.7
20260905122836 72 97 3.5 6.1 0.00 0.27 0.06 98 1014.8
20260905122729 72 101 2.6 5.2 0.00 0.27 0.06 98 1014.7
20260905122624 72 98 3.5 5.2 0.00 0.27 0.06 98 1014.7
20260905122536 72 91 2.6 5.2 0.00 0.27 0.06 98 1014.6
20260905122429 72 94 2.6 5.2 0.00 0.27 0.06 98 1014.6
20260905122320 72 114 3.5 5.2 0.00 0.27 0.06 98 1014.6
20260905122232 72 100 3.5 5.2 0.00 0.27 0.06 98 1014.5
20260905122125 72 95 2.6 5.2 0.00 0.27 0.06 98 1014.5
20260905122036 72 123 2.6 3.5 0.00 0.27 0.06 98 1014.5
20260905121929 72 122 1.7 3.5 0.00 0.27 0.06 98 1014.6
20260905121845 72 116 1.7 3.5 0.00 0.27 0.06 98 1014.4
20260905121757 72 96 2.6 3.5 0.00 0.27 0.06 98 1014.4
20260905121659 72 96 1.7 3.5 0.00 0.27 0.06 98 1014.4
20260905121530 72 88 0.9 3.5 0.00 0.27 0.06 98 1014.4
20260905121422 72 88 0.9 3.5 0.00 0.27 0.06 98 1014.3
20260905121335 72 88 1.7 3.5 0.00 0.27 0.06 98 1014.3
20260905121227 72 101 1.7 3.5 0.00 0.27 0.06 98 1014.3
20260905121139 72 80 2.6 3.5 0.00 0.27 0.06 98 1014.4
20260905121031 72 109 2.6 3.5 0.00 0.27 0.06 98 1014.4
20260905120928 72 90 2.6 3.5 0.00 0.27 0.06 98 1014.2
20260905120840 72 119 2.6 3.5 0.00 0.27 0.06 98 1014.3
20260905120753 72 88 0.9 3.5 0.00 0.27 0.06 98 1014.3
20260905120624 72 87 0.0 0.0 0.00 0.27 0.06 98 1014.3
20260905120535 72 87 0.0 0.0 0.00 0.27 0.06 98 1014.3
20260905120448 72 87 0.0 0.0 0.00 0.27 0.06 98 1014.3
20260905120400 72 87 0.0 0.0 0.00 0.27 0.06 98 1014.3
20260905120231 72 87 0.0 0.0 0.00 0.27 0.06 98 1014.3
20260905120153 72 87 0.0 0.0 0.00 0.27 0.06 98 1014.3
20260905120044 72 87 0.0 0.0 0.00 0.27 0.06 98 1014.2
20260905115938 72 87 0.0 0.0 0.00 0.27 0.06 98 1014.2
20260905115849 72 87 0.0 0.0 0.00 0.27 0.06 98 1014.2
20260905115741 72 87 0.0 0.0 0.00 0.27 0.06 98 1014.2
20260905115653 72 61 0.0 0.0 0.00 0.27 0.06 98 1014.2
20260905115606 72 86 0.0 0.9 0.00 0.27 0.06 98 1014.1
20260905115456 72 72 0.0 2.6 0.00 0.27 0.06 98 1014.1
20260905115328 72 72 0.0 2.6 0.00 0.27 0.06 98 1014.1
20260905115220 72 72 0.0 2.6 0.00 0.27 0.06 98 1014.0
20260905115133 72 72 0.0 2.6 0.00 0.27 0.06 98 1014.0
20260905115045 72 72 0.0 3.5 0.00 0.27 0.06 98 1014.0
20260905114935 72 95 0.0 3.5 0.00 0.27 0.06 98 1013.9
20260905114830 72 95 0.9 3.5 0.00 0.27 0.06 98 1013.9
20260905114741 72 63 1.7 3.5 0.00 0.27 0.06 98 1013.9
20260905114641 72 63 0.9 3.5 0.00 0.27 0.06 98 1013.8
20260905114533 72 63 0.0 3.5 0.00 0.27 0.06 98 1013.9
20260905114425 72 86 0.9 3.5 0.00 0.27 0.06 98 1013.8
20260905114337 72 86 1.7 3.5 0.00 0.27 0.06 98 1013.9
20260905114229 72 84 2.6 3.5 0.00 0.27 0.06 98 1013.9
20260905114120 72 89 0.9 3.5 0.00 0.27 0.06 98 1013.8
20260905114032 72 90 0.0 3.5 0.00 0.27 0.06 98 1013.9
20260905113928 72 75 0.0 0.0 0.00 0.27 0.06 98 1013.9
20260905113820 72 75 0.0 0.0 0.00 0.27 0.06 98 1013.9
20260905113732 72 76 0.0 0.0 0.00 0.27 0.06 98 1013.9
20260905113624 72 76 0.0 0.0 0.00 0.27 0.06 98 1013.9
20260905113536 72 76 0.0 0.0 0.00 0.27 0.06 98 1013.9
20260905113428 72 76 0.0 0.0 0.00 0.27 0.06 98 1013.9
20260905113341 72 76 0.0 0.0 0.00 0.27 0.06 98 1013.9
20260905113230 72 63 0.0 0.0 0.00 0.27 0.06 98 1013.9
20260905113153 72 31 0.0 0.0 0.00 0.27 0.06 98 1013.9
20260905113029 72 31 0.0 0.0 0.00 0.27 0.06 98 1013.8
20260905112921 72 31 0.0 0.0 0.00 0.27 0.06 98 1013.8
20260905112832 72 31 0.0 0.0 0.00 0.27 0.06 98 1013.8
20260905112725 72 31 0.0 0.0 0.00 0.27 0.06 97 1013.7
20260905112638 72 31 0.0 0.0 0.00 0.27 0.06 97 1013.7
20260905112530 72 31 0.0 0.0 0.00 0.27 0.06 97 1013.7
20260905112443 72 31 0.0 0.0 0.00 0.27 0.06 97 1013.8
20260905112355 72 31 0.0 0.0 0.00 0.27 0.06 97 1013.8
20260905112231 72 31 0.0 0.0 0.00 0.27 0.06 97 1013.8
20260905112143 72 31 0.0 0.0 0.00 0.27 0.06 98 1013.8
20260905112056 72 31 0.0 0.0 0.00 0.27 0.06 98 1013.7
20260905111949 72 31 0.0 0.0 0.00 0.27 0.06 98 1013.7
20260905111901 72 31 0.0 0.0 0.00 0.27 0.06 98 1013.7
20260905111813 72 31 0.0 0.0 0.00 0.27 0.06 98 1013.7
20260905111713 72 31 0.0 0.0 0.00 0.27 0.06 98 1013.6
20260905111524 72 31 0.0 0.0 0.00 0.27 0.06 98 1013.5
20260905111437 72 31 0.0 0.0 0.00 0.27 0.06 98 1013.5
20260905111348 72 31 0.0 0.0 0.00 0.27 0.06 98 1013.4
20260905111300 72 31 0.0 0.0 0.00 0.27 0.06 98 1013.5
20260905111135 72 31 0.0 0.0 0.00 0.27 0.06 98 1013.5
20260905111026 72 31 0.0 0.0 0.00 0.27 0.06 98 1013.4
20260905110938 72 31 0.0 0.0 0.00 0.27 0.06 98 1013.5
20260905110829 72 31 0.0 3.5 0.00 0.27 0.06 98 1013.5
20260905110722 72 31 0.0 3.5 0.00 0.27 0.06 98 1013.5
20260905110634 72 31 0.0 4.3 0.00 0.27 0.06 98 1013.5
20260905110547 72 31 0.0 4.3 0.00 0.27 0.06 98 1013.5
20260905110438 72 31 0.0 4.3 0.00 0.27 0.06 98 1013.5
20260905110351 72 31 0.0 4.3 0.00 0.27 0.06 98 1013.4